Time,TemperatureF,DewpointF,PressureIn,WindDirection,WindDirectionDegrees,WindSpeedMPH,WindSpeedGustMPH,Humidity,HourlyPrecipIn,Conditions,Clouds,dailyrainin,SoftwareType,DateUTC
2013-02-01 00:00:00,33.1,23.7,29.97,WSW,252,7.0,7.0,68,0.00,RA,,0.00,WeatherDisplay:10.37,2013-02-01 05:00:00,
2013-02-01 00:01:00,33.1,23.7,29.96,NW,307,10.4,10.4,68,0.00,RA,,0.00,WeatherDisplay:10.37,2013-02-01 05:01:00,
2013-02-01 00:06:00,33.1,24.0,29.96,SW,226,8.1,8.1,69,0.00,RA,,0.00,WeatherDisplay:10.37,2013-02-01 05:06:00,
2013-02-01 00:11:00,33.2,24.1,29.96,West,260,8.1,8.1,69,0.00,,,0.00,WeatherDisplay:10.37,2013-02-01 05:11:00,
2013-02-01 00:12:00,33.2,24.1,29.96,WSW,246,10.4,10.4,69,0.00,,,0.00,WeatherDisplay:10.37,2013-02-01 05:12:00,
2013-02-01 00:16:00,33.1,24.0,29.96,WSW,245,9.2,9.2,69,0.00,,,0.00,WeatherDisplay:10.37,2013-02-01 05:16:00,
2013-02-01 00:17:00,33.1,24.0,29.96,SW,236,11.5,11.5,69,0.00,,,0.00,WeatherDisplay:10.37,2013-02-01 05:17:00,
2013-02-01 00:21:00,33.1,23.7,29.96,West,261,12.7,12.7,68,0.00,,,0.00,WeatherDisplay:10.37,2013-02-01 05:21:00,
2013-02-01 00:22:00,33.1,23.7,29.96,WSW,255,8.1,8.1,68,0.00,,,0.00,WeatherDisplay:10.37,2013-02-01 05:22:00,
2013-02-01 00:23:00,33.1,23.7,29.96,WNW,286,4.6,4.6,68,0.00,,,0.00,WeatherDisplay:10.37,2013-02-01 05:23:00,
2013-02-01 00:26:00,33.1,24.0,29.96,West,264,7.0,7.0,69,0.00,,,0.00,WeatherDisplay:10.37,2013-02-01 05:26:00,
2013-02-01 00:27:00,33.1,24.0,29.96,SW,229,9.2,9.2,69,0.00,,,0.00,WeatherDisplay:10.37,2013-02-01 05:27:00,
2013-02-01 00:28:00,33.1,24.0,29.96,NW,309,6.9,6.9,69,0.00,,,0.00,WeatherDisplay:10.37,2013-02-01 05:28:00,
2013-02-01 00:32:00,33.2,23.8,29.96,WSW,240,11.5,11.5,68,0.00,,,0.00,WeatherDisplay:10.37,2013-02-01 05:32:00,
2013-02-01 00:33:00,33.2,24.1,29.95,West,261,10.4,10.4,69,0.00,,,0.00,WeatherDisplay:10.37,2013-02-01 05:33:00,
2013-02-01 00:37:00,33.2,24.1,29.95,WNW,293,5.8,5.8,69,0.00,,,0.00,WeatherDisplay:10.37,2013-02-01 05:37:00,
2013-02-01 00:39:00,33.2,24.1,29.95,WSW,239,9.2,9.2,69,0.00,,,0.00,WeatherDisplay:10.37,2013-02-01 05:39:00,
2013-02-01 00:42:00,33.2,23.8,29.95,WSW,253,9.2,9.2,68,0.00,,,0.00,WeatherDisplay:10.37,2013-02-01 05:42:00,
2013-02-01 00:44:00,33.1,24.0,29.95,SW,232,10.4,10.4,69,0.00,,,0.00,WeatherDisplay:10.37,2013-02-01 05:44:00,
2013-02-01 00:47:00,33.2,24.1,29.95,WSW,258,8.0,8.0,69,0.00,,,0.00,WeatherDisplay:10.37,2013-02-01 05:47:00,
2013-02-01 00:48:00,33.2,24.1,29.95,WSW,255,8.1,8.1,69,0.00,,,0.00,WeatherDisplay:10.37,2013-02-01 05:48:00,
2013-02-01 00:49:00,33.2,24.1,29.95,WSW,241,10.4,10.4,69,0.00,,,0.00,WeatherDisplay:10.37,2013-02-01 05:49:00,
2013-02-01 00:52:00,33.2,24.1,29.94,WSW,250,10.0,10.0,69,0.00,,,0.00,WeatherDisplay:10.37,2013-02-01 05:52:00,
2013-02-01 00:53:00,33.2,24.1,29.94,WSW,245,10.4,10.4,69,0.00,,,0.00,WeatherDisplay:10.37,2013-02-01 05:53:00,
2013-02-01 00:54:00,33.2,24.1,29.94,WNW,283,5.8,5.8,69,0.00,,,0.00,WeatherDisplay:10.37,2013-02-01 05:54:00,
2013-02-01 00:57:00,33.3,24.2,29.94,SW,236,5.0,5.0,69,0.00,,,0.00,WeatherDisplay:10.37,2013-02-01 05:57:00,
2013-02-01 00:58:00,33.3,24.2,29.94,SW,222,11.5,11.5,69,0.00,,,0.00,WeatherDisplay:10.37,2013-02-01 05:58:00,
2013-02-01 00:59:00,33.3,24.2,29.93,SSW,205,10.4,10.4,69,0.00,,,0.00,WeatherDisplay:10.37,2013-02-01 05:59:00,
2013-02-01 01:03:00,33.3,23.9,29.93,SW,230,8.1,8.1,68,0.00,,,0.00,WeatherDisplay:10.37,2013-02-01 06:03:00,
2013-02-01 01:04:00,33.4,24.0,29.93,WNW,299,5.8,5.8,68,0.00,,,0.00,WeatherDisplay:10.37,2013-02-01 06:04:00,
2013-02-01 01:08:00,33.4,24.3,29.94,SW,225,9.2,9.2,69,0.00,,,0.00,WeatherDisplay:10.37,2013-02-01 06:08:00,
2013-02-01 01:09:00,33.4,24.3,29.94,West,262,8.1,8.1,69,0.00,,,0.00,WeatherDisplay:10.37,2013-02-01 06:09:00,
2013-02-01 01:10:00,33.4,24.3,29.94,WSW,249,5.0,12.0,69,0.00,,,0.00,WeatherDisplay:10.37,2013-02-01 06:10:00,
2013-02-01 01:13:00,33.4,24.3,29.94,West,260,11.5,11.5,69,0.00,,,0.00,WeatherDisplay:10.37,2013-02-01 06:13:00,
2013-02-01 01:14:00,33.5,24.4,29.94,NW,305,10.0,10.0,69,0.00,,,0.00,WeatherDisplay:10.37,2013-02-01 06:14:00,
2013-02-01 01:15:00,33.5,24.4,29.94,WSW,257,11.5,11.5,69,0.00,,,0.00,WeatherDisplay:10.37,2013-02-01 06:15:00,
2013-02-01 01:18:00,33.4,24.7,29.94,West,260,9.2,9.2,70,0.00,,,0.00,WeatherDisplay:10.37,2013-02-01 06:18:00,
2013-02-01 01:20:00,33.4,25.0,29.94,WNW,290,9.2,9.2,71,0.00,,,0.00,WeatherDisplay:10.37,2013-02-01 06:20:00,
2013-02-01 01:23:00,33.3,24.9,29.94,WSW,245,11.5,11.5,71,0.00,,,0.00,WeatherDisplay:10.37,2013-02-01 06:23:00,
2013-02-01 01:25:00,33.3,24.9,29.94,WSW,253,11.5,11.5,71,0.00,,,0.00,WeatherDisplay:10.37,2013-02-01 06:25:00,
2013-02-01 01:28:00,33.3,25.2,29.94,SW,226,13.8,13.8,72,0.00,,,0.00,WeatherDisplay:10.37,2013-02-01 06:28:00,
2013-02-01 01:29:00,33.3,25.2,29.94,WSW,246,9.0,9.0,72,0.00,,,0.00,WeatherDisplay:10.37,2013-02-01 06:29:00,
2013-02-01 01:30:00,33.3,25.2,29.94,WSW,254,13.8,13.8,72,0.00,,,0.00,WeatherDisplay:10.37,2013-02-01 06:30:00,
2013-02-01 01:34:00,33.3,25.2,29.93,WSW,240,8.1,8.1,72,0.00,,,0.00,WeatherDisplay:10.37,2013-02-01 06:34:00,
2013-02-01 01:35:00,33.3,25.6,29.93,WSW,252,8.1,8.1,73,0.00,,,0.00,WeatherDisplay:10.37,2013-02-01 06:35:00,
2013-02-01 01:39:00,33.3,25.6,29.93,SW,234,10.0,10.0,73,0.00,,,0.00,WeatherDisplay:10.37,2013-02-01 06:39:00,
2013-02-01 01:40:00,33.3,25.6,29.93,WSW,247,7.0,10.0,73,0.00,,,0.00,WeatherDisplay:10.37,2013-02-01 06:40:00,
2013-02-01 01:41:00,33.3,25.9,29.93,WSW,251,10.0,10.0,74,0.00,,,0.00,WeatherDisplay:10.37,2013-02-01 06:41:00,
2013-02-01 01:44:00,33.4,26.3,29.93,SW,222,15.0,15.0,75,0.00,,,0.00,WeatherDisplay:10.37,2013-02-01 06:44:00,
2013-02-01 01:45:00,33.4,26.3,29.94,WSW,245,15.0,15.0,75,0.00,,,0.00,WeatherDisplay:10.37,2013-02-01 06:45:00,
2013-02-01 01:46:00,33.5,26.4,29.94,WSW,250,13.8,13.8,75,0.00,,,0.00,WeatherDisplay:10.37,2013-02-01 06:46:00,
2013-02-01 01:49:00,33.5,26.7,29.94,WSW,255,17.3,17.3,76,0.00,,,0.00,WeatherDisplay:10.37,2013-02-01 06:49:00,
2013-02-01 01:50:00,33.6,27.2,29.94,SW,226,13.8,13.8,77,0.00,,,0.00,WeatherDisplay:10.37,2013-02-01 06:50:00,
2013-02-01 01:51:00,33.6,27.2,29.94,South,175,16.1,16.1,77,0.00,,,0.00,WeatherDisplay:10.37,2013-02-01 06:51:00,
2013-02-01 01:52:00,33.6,27.2,29.94,West,279,11.5,11.5,77,0.00,,,0.00,WeatherDisplay:10.37,2013-02-01 06:52:00,
2013-02-01 01:54:00,33.6,27.2,29.94,West,266,16.1,16.1,77,0.00,,,0.00,WeatherDisplay:10.37,2013-02-01 06:54:00,
2013-02-01 01:55:00,33.6,27.5,29.94,West,263,18.4,18.4,78,0.00,,,0.00,WeatherDisplay:10.37,2013-02-01 06:55:00,
2013-02-01 01:56:00,33.6,27.5,29.94,SW,232,16.1,16.1,78,0.00,,,0.00,WeatherDisplay:10.37,2013-02-01 06:56:00,
2013-02-01 01:57:00,33.6,27.5,29.94,West,262,16.1,16.1,78,0.00,,,0.00,WeatherDisplay:10.37,2013-02-01 06:57:00,
2013-02-01 01:59:00,33.6,27.5,29.94,SW,235,12.7,12.7,78,0.00,,,0.00,WeatherDisplay:10.37,2013-02-01 06:59:00,
2013-02-01 02:01:00,33.7,27.6,29.94,SW,231,15.0,15.0,78,0.00,,,0.00,WeatherDisplay:10.37,2013-02-01 07:01:00,
2013-02-01 02:02:00,33.7,27.6,29.94,WSW,245,11.5,11.5,78,0.00,,,0.00,WeatherDisplay:10.37,2013-02-01 07:02:00,
2013-02-01 02:04:00,33.6,27.8,29.94,WSW,245,18.0,18.0,79,0.00,CLR,,0.00,WeatherDisplay:10.37,2013-02-01 07:04:00,
2013-02-01 02:06:00,33.6,28.1,29.94,SW,227,21.0,21.0,80,0.00,CLR,,0.00,WeatherDisplay:10.37,2013-02-01 07:06:00,
2013-02-01 02:07:00,33.6,28.1,29.94,WSW,240,20.7,20.7,80,0.00,CLR,,0.00,WeatherDisplay:10.37,2013-02-01 07:07:00,
2013-02-01 02:09:00,33.5,28.3,29.93,WSW,237,12.0,12.0,81,0.00,CLR,,0.00,WeatherDisplay:10.37,2013-02-01 07:09:00,
2013-02-01 02:11:00,33.4,28.5,29.94,WNW,290,13.8,13.8,82,0.00,CLR,,0.00,WeatherDisplay:10.37,2013-02-01 07:11:00,
2013-02-01 02:12:00,33.3,28.4,29.93,NW,324,10.4,10.4,82,0.00,CLR,,0.00,WeatherDisplay:10.37,2013-02-01 07:12:00,
2013-02-01 02:14:00,33.2,28.6,29.94,NW,310,13.8,13.8,83,0.00,CLR,,0.00,WeatherDisplay:10.37,2013-02-01 07:14:00,
2013-02-01 02:16:00,33.1,28.8,29.94,WSW,253,20.7,20.7,84,0.00,CLR,,0.00,WeatherDisplay:10.37,2013-02-01 07:16:00,
2013-02-01 02:17:00,33.0,28.7,29.94,West,264,8.1,8.1,84,0.00,CLR,,0.00,WeatherDisplay:10.37,2013-02-01 07:17:00,
2013-02-01 02:18:00,33.0,29.0,29.94,SW,233,15.0,15.0,85,0.00,CLR,,0.00,WeatherDisplay:10.37,2013-02-01 07:18:00,
2013-02-01 02:19:00,32.9,28.9,29.94,WSW,257,15.0,15.0,85,0.00,CLR,,0.00,WeatherDisplay:10.37,2013-02-01 07:19:00,
2013-02-01 02:21:00,32.8,29.1,29.94,WSW,254,14.0,14.0,86,0.00,CLR,,0.00,WeatherDisplay:10.37,2013-02-01 07:21:00,
2013-02-01 02:23:00,32.7,29.0,29.94,WSW,249,12.7,12.7,86,0.00,CLR,,0.00,WeatherDisplay:10.37,2013-02-01 07:23:00,
2013-02-01 02:25:00,32.6,28.9,29.94,WSW,253,8.0,15.0,86,0.00,CLR,,0.00,WeatherDisplay:10.37,2013-02-01 07:25:00,
2013-02-01 02:27:00,32.5,29.1,29.94,WSW,253,11.5,11.5,87,0.00,CLR,,0.00,WeatherDisplay:10.37,2013-02-01 07:27:00,
2013-02-01 02:28:00,32.4,29.0,29.94,West,271,18.4,18.4,87,0.00,CLR,,0.00,WeatherDisplay:10.37,2013-02-01 07:28:00,
2013-02-01 02:30:00,32.4,29.2,29.94,WSW,239,17.0,17.0,88,0.00,CLR,,0.00,WeatherDisplay:10.37,2013-02-01 07:30:00,
2013-02-01 02:32:00,32.3,29.4,29.94,SW,231,12.7,12.7,89,0.00,CLR,,0.00,WeatherDisplay:10.37,2013-02-01 07:32:00,
2013-02-01 02:33:00,32.2,29.3,29.94,West,271,11.5,11.5,89,0.00,CLR,,0.00,WeatherDisplay:10.37,2013-02-01 07:33:00,
2013-02-01 02:35:00,32.1,29.5,29.94,WSW,247,17.3,17.3,90,0.00,CLR,,0.00,WeatherDisplay:10.37,2013-02-01 07:35:00,
2013-02-01 02:37:00,32.1,29.5,29.94,SW,215,16.1,16.1,90,0.00,CLR,,0.00,WeatherDisplay:10.37,2013-02-01 07:37:00,
2013-02-01 02:38:00,32.1,29.5,29.94,West,266,17.3,17.3,90,0.00,CLR,,0.00,WeatherDisplay:10.37,2013-02-01 07:38:00,
2013-02-01 02:40:00,32.1,29.5,29.94,WSW,255,15.0,15.0,90,0.00,CLR,,0.00,WeatherDisplay:10.37,2013-02-01 07:40:00,
2013-02-01 02:42:00,32.1,29.5,29.94,WSW,243,17.3,17.3,90,0.00,CLR,,0.00,WeatherDisplay:10.37,2013-02-01 07:42:00,
2013-02-01 02:43:00,32.1,29.5,29.94,WNW,298,17.3,17.3,90,0.00,CLR,,0.00,WeatherDisplay:10.37,2013-02-01 07:43:00,
2013-02-01 02:45:00,32.1,29.5,29.95,WSW,241,11.5,11.5,90,0.00,CLR,,0.00,WeatherDisplay:10.37,2013-02-01 07:45:00,
2013-02-01 02:48:00,32.1,29.5,29.94,West,260,9.2,9.2,90,0.00,CLR,,0.00,WeatherDisplay:10.37,2013-02-01 07:48:00,
2013-02-01 02:50:00,32.1,29.5,29.94,WSW,257,16.0,16.0,90,0.00,CLR,,0.00,WeatherDisplay:10.37,2013-02-01 07:50:00,
2013-02-01 02:53:00,32.1,29.5,29.95,WSW,249,11.5,11.5,90,0.00,CLR,,0.00,WeatherDisplay:10.37,2013-02-01 07:53:00,
2013-02-01 02:56:00,32.1,29.8,29.95,WSW,251,11.5,11.5,91,0.00,CLR,,0.00,WeatherDisplay:10.37,2013-02-01 07:56:00,
2013-02-01 02:58:00,32.1,29.8,29.95,WSW,241,12.7,12.7,91,0.00,CLR,,0.00,WeatherDisplay:10.37,2013-02-01 07:58:00,
2013-02-01 02:59:00,32.1,29.8,29.94,WSW,257,16.1,16.1,91,0.00,CLR,,0.00,WeatherDisplay:10.37,2013-02-01 07:59:00,
2013-02-01 03:01:00,32.0,29.9,29.97,NW,322,17.3,17.3,92,0.00,CLR,,0.00,WeatherDisplay:10.37,2013-02-01 08:01:00,
2013-02-01 03:03:00,32.0,29.9,29.93,WSW,250,12.7,12.7,92,0.00,CLR,,0.00,WeatherDisplay:10.37,2013-02-01 08:03:00,
2013-02-01 03:04:00,31.9,29.8,29.95,WSW,256,11.5,11.5,92,0.00,CLR,,0.00,WeatherDisplay:10.37,2013-02-01 08:04:00,
2013-02-01 03:06:00,31.8,30.0,29.93,SW,235,16.1,16.1,93,0.00,CLR,,0.00,WeatherDisplay:10.37,2013-02-01 08:06:00,
2013-02-01 03:08:00,31.8,30.0,29.97,West,271,20.7,20.7,93,0.00,CLR,,0.00,WeatherDisplay:10.37,2013-02-01 08:08:00,
2013-02-01 03:09:00,31.7,29.9,29.96,West,276,16.1,16.1,93,0.00,CLR,,0.00,WeatherDisplay:10.37,2013-02-01 08:09:00,
2013-02-01 03:10:00,31.7,29.9,29.96,SSW,210,12.7,12.7,93,0.00,CLR,,0.00,WeatherDisplay:10.37,2013-02-01 08:10:00,
2013-02-01 03:12:00,31.6,30.1,29.97,SW,217,18.4,18.4,94,0.00,CLR,,0.00,WeatherDisplay:10.37,2013-02-01 08:12:00,
2013-02-01 03:13:00,31.5,30.0,29.97,SW,230,19.6,19.6,94,0.00,CLR,,0.00,WeatherDisplay:10.37,2013-02-01 08:13:00,
2013-02-01 03:14:00,31.5,30.0,29.96,NW,311,13.8,13.8,94,0.00,CLR,,0.00,WeatherDisplay:10.37,2013-02-01 08:14:00,
2013-02-01 03:15:00,31.4,29.9,29.96,SW,214,17.3,17.3,94,0.00,CLR,,0.00,WeatherDisplay:10.37,2013-02-01 08:15:00,
2013-02-01 03:17:00,31.1,29.3,29.96,SW,222,23.0,23.0,93,0.00,CLR,,0.00,WeatherDisplay:10.37,2013-02-01 08:17:00,
2013-02-01 03:19:00,30.8,29.0,29.98,NW,305,21.9,21.9,93,0.00,CLR,,0.00,WeatherDisplay:10.37,2013-02-01 08:19:00,
2013-02-01 03:20:00,30.6,28.8,29.98,West,259,21.9,21.9,93,0.00,CLR,,0.00,WeatherDisplay:10.37,2013-02-01 08:20:00,
2013-02-01 03:22:00,29.8,27.8,29.97,NW,316,18.4,18.4,92,0.00,CLR,,0.00,WeatherDisplay:10.37,2013-02-01 08:22:00,
2013-02-01 03:24:00,29.3,27.3,29.98,NNW,338,13.0,13.0,92,0.00,CLR,,0.00,WeatherDisplay:10.37,2013-02-01 08:24:00,
2013-02-01 03:25:00,29.1,27.1,29.98,WNW,290,15.0,15.0,92,0.00,CLR,,0.00,WeatherDisplay:10.37,2013-02-01 08:25:00,
2013-02-01 03:27:00,28.5,26.5,29.98,NW,310,13.8,13.8,92,0.00,CLR,,0.00,WeatherDisplay:10.37,2013-02-01 08:27:00,
2013-02-01 03:29:00,28.1,26.1,29.99,NW,306,18.4,18.4,92,0.00,CLR,,0.00,WeatherDisplay:10.37,2013-02-01 08:29:00,
2013-02-01 03:30:00,27.9,25.9,29.99,WSW,238,9.2,9.2,92,0.00,CLR,,0.00,WeatherDisplay:10.37,2013-02-01 08:30:00,
2013-02-01 03:31:00,27.8,25.8,29.99,WNW,296,14.0,14.0,92,0.00,CLR,,0.00,WeatherDisplay:10.37,2013-02-01 08:31:00,
2013-02-01 03:33:00,27.6,25.6,29.99,West,274,16.1,16.1,92,0.00,CLR,,0.00,WeatherDisplay:10.37,2013-02-01 08:33:00,
2013-02-01 03:35:00,27.3,25.5,30.00,WSW,238,18.4,18.4,93,0.00,CLR,,0.00,WeatherDisplay:10.37,2013-02-01 08:35:00,
2013-02-01 03:36:00,27.1,25.1,30.00,WSW,251,18.4,18.4,92,0.00,CLR,,0.00,WeatherDisplay:10.37,2013-02-01 08:36:00,
2013-02-01 03:38:00,26.8,24.8,30.01,WNW,299,15.0,15.0,92,0.00,CLR,,0.00,WeatherDisplay:10.37,2013-02-01 08:38:00,
2013-02-01 03:40:00,26.3,24.0,30.01,WSW,238,16.1,16.1,91,0.00,CLR,,0.00,WeatherDisplay:10.37,2013-02-01 08:40:00,
2013-02-01 03:41:00,26.1,23.8,30.02,WNW,282,17.3,17.3,91,0.00,CLR,,0.00,WeatherDisplay:10.37,2013-02-01 08:41:00,
2013-02-01 03:42:00,26.0,23.7,30.01,WSW,240,26.5,26.5,91,0.00,CLR,,0.00,WeatherDisplay:10.37,2013-02-01 08:42:00,
2013-02-01 03:43:00,25.6,23.3,30.01,WSW,240,19.6,19.6,91,0.00,CLR,,0.00,WeatherDisplay:10.37,2013-02-01 08:43:00,
2013-02-01 03:46:00,25.3,23.0,30.01,WSW,238,11.5,11.5,91,0.00,CLR,,0.00,WeatherDisplay:10.37,2013-02-01 08:46:00,
2013-02-01 03:47:00,25.1,22.8,30.02,West,274,11.5,11.5,91,0.00,CLR,,0.00,WeatherDisplay:10.37,2013-02-01 08:47:00,
2013-02-01 03:49:00,24.8,22.5,30.02,WSW,246,17.3,17.3,91,0.00,CLR,,0.00,WeatherDisplay:10.37,2013-02-01 08:49:00,
2013-02-01 03:51:00,24.7,22.4,30.02,WSW,243,17.3,17.3,91,0.00,CLR,,0.00,WeatherDisplay:10.37,2013-02-01 08:51:00,
2013-02-01 03:52:00,24.6,22.3,30.02,West,261,15.0,15.0,91,0.00,CLR,,0.00,WeatherDisplay:10.37,2013-02-01 08:52:00,
2013-02-01 03:54:00,24.3,22.1,30.02,West,278,15.0,15.0,91,0.00,CLR,,0.00,WeatherDisplay:10.37,2013-02-01 08:54:00,
2013-02-01 03:56:00,24.2,22.0,30.03,NW,322,19.6,19.6,91,0.00,CLR,,0.00,WeatherDisplay:10.37,2013-02-01 08:56:00,
2013-02-01 03:57:00,24.2,22.0,30.03,SW,229,11.5,11.5,91,0.00,CLR,,0.00,WeatherDisplay:10.37,2013-02-01 08:57:00,
2013-02-01 03:59:00,24.1,21.9,30.04,WNW,293,12.7,12.7,91,0.00,CLR,,0.00,WeatherDisplay:10.37,2013-02-01 08:59:00,
2013-02-01 04:01:00,24.0,21.8,30.05,NW,306,21.9,21.9,91,0.00,CLR,,0.00,WeatherDisplay:10.37,2013-02-01 09:01:00,
2013-02-01 04:02:00,24.0,21.8,30.05,NE,36,15.0,15.0,91,0.00,CLR,,0.00,WeatherDisplay:10.37,2013-02-01 09:02:00,
2013-02-01 04:05:00,23.9,21.7,30.04,West,281,8.0,22.0,91,0.00,CLR,,0.00,WeatherDisplay:10.37,2013-02-01 09:05:00,
2013-02-01 04:06:00,23.8,21.6,30.05,West,269,9.2,9.2,91,0.00,CLR,,0.00,WeatherDisplay:10.37,2013-02-01 09:06:00,
2013-02-01 04:07:00,23.8,21.6,30.05,West,274,8.1,8.1,91,0.00,CLR,,0.00,WeatherDisplay:10.37,2013-02-01 09:07:00,
2013-02-01 04:08:00,23.8,21.6,30.05,WNW,283,6.9,6.9,91,0.00,CLR,,0.00,WeatherDisplay:10.37,2013-02-01 09:08:00,
2013-02-01 04:10:00,23.8,21.3,30.05,West,266,8.0,8.0,90,0.00,CLR,,0.00,WeatherDisplay:10.37,2013-02-01 09:10:00,
2013-02-01 04:12:00,23.6,21.1,30.05,WNW,300,21.9,21.9,90,0.00,CLR,,0.00,WeatherDisplay:10.37,2013-02-01 09:12:00,
2013-02-01 04:13:00,23.6,20.8,30.05,WSW,253,13.8,13.8,89,0.00,CLR,,0.00,WeatherDisplay:10.37,2013-02-01 09:13:00,
2013-02-01 04:15:00,23.5,20.7,30.05,NW,316,15.0,15.0,89,0.00,CLR,,0.00,WeatherDisplay:10.37,2013-02-01 09:15:00,
2013-02-01 04:17:00,23.4,20.6,30.05,WSW,251,10.4,10.4,89,0.00,CLR,,0.00,WeatherDisplay:10.37,2013-02-01 09:17:00,
2013-02-01 04:18:00,23.4,20.6,30.05,NW,306,11.5,11.5,89,0.00,CLR,,0.00,WeatherDisplay:10.37,2013-02-01 09:18:00,
2013-02-01 04:20:00,23.3,20.5,30.05,NW,305,11.5,11.5,89,0.00,CLR,,0.00,WeatherDisplay:10.37,2013-02-01 09:20:00,
2013-02-01 04:22:00,23.2,20.4,30.05,WNW,284,9.2,9.2,89,0.00,CLR,,0.00,WeatherDisplay:10.37,2013-02-01 09:22:00,
2013-02-01 04:23:00,23.2,20.2,30.05,West,270,12.7,12.7,88,0.00,CLR,,0.00,WeatherDisplay:10.37,2013-02-01 09:23:00,
2013-02-01 04:25:00,23.1,20.1,30.05,West,274,13.8,13.8,88,0.00,CLR,,0.00,WeatherDisplay:10.37,2013-02-01 09:25:00,
2013-02-01 04:27:00,22.9,20.1,30.06,WSW,256,11.5,11.5,89,0.00,CLR,,0.00,WeatherDisplay:10.37,2013-02-01 09:27:00,
2013-02-01 04:28:00,22.9,20.1,30.06,WNW,290,12.7,12.7,89,0.00,CLR,,0.00,WeatherDisplay:10.37,2013-02-01 09:28:00,
2013-02-01 04:30:00,22.8,19.8,30.06,West,267,15.0,15.0,88,0.00,CLR,,0.00,WeatherDisplay:10.37,2013-02-01 09:30:00,
2013-02-01 04:33:00,22.7,19.7,30.06,NW,316,15.0,15.0,88,0.00,CLR,,0.00,WeatherDisplay:10.37,2013-02-01 09:33:00,
2013-02-01 04:34:00,22.7,19.7,30.06,West,260,10.4,10.4,88,0.00,CLR,,0.00,WeatherDisplay:10.37,2013-02-01 09:34:00,
2013-02-01 04:35:00,22.6,19.6,30.06,West,271,6.9,6.9,88,0.00,CLR,,0.00,WeatherDisplay:10.37,2013-02-01 09:35:00,
2013-02-01 04:38:00,22.6,19.6,30.07,WNW,302,12.7,12.7,88,0.00,CLR,,0.00,WeatherDisplay:10.37,2013-02-01 09:38:00,
2013-02-01 04:39:00,22.5,19.5,30.07,West,281,11.5,11.5,88,0.00,CLR,,0.00,WeatherDisplay:10.37,2013-02-01 09:39:00,
2013-02-01 04:41:00,22.5,19.5,30.07,West,276,11.5,11.5,88,0.00,CLR,,0.00,WeatherDisplay:10.37,2013-02-01 09:41:00,
2013-02-01 04:43:00,22.5,19.5,30.07,WNW,300,9.2,9.2,88,0.00,CLR,,0.00,WeatherDisplay:10.37,2013-02-01 09:43:00,
2013-02-01 04:44:00,22.5,19.5,30.07,WSW,258,8.1,8.1,88,0.00,CLR,,0.00,WeatherDisplay:10.37,2013-02-01 09:44:00,
2013-02-01 04:46:00,22.4,19.1,30.08,West,267,20.7,20.7,87,0.00,CLR,,0.00,WeatherDisplay:10.37,2013-02-01 09:46:00,
2013-02-01 04:48:00,22.4,19.1,30.08,WNW,294,11.5,11.5,87,0.00,CLR,,0.00,WeatherDisplay:10.37,2013-02-01 09:48:00,
2013-02-01 04:49:00,22.3,19.0,30.08,West,280,15.0,15.0,87,0.00,CLR,,0.00,WeatherDisplay:10.37,2013-02-01 09:49:00,
2013-02-01 04:51:00,22.2,18.7,30.08,NW,314,10.4,10.4,86,0.00,CLR,,0.00,WeatherDisplay:10.37,2013-02-01 09:51:00,
2013-02-01 04:53:00,22.1,18.6,30.08,WNW,282,12.0,12.0,86,0.00,CLR,,0.00,WeatherDisplay:10.37,2013-02-01 09:53:00,
2013-02-01 04:55:00,22.1,18.5,30.08,WNW,283,7.0,12.0,86,0.00,CLR,,0.00,WeatherDisplay:10.37,2013-02-01 09:55:00,
2013-02-01 04:56:00,21.9,18.4,30.08,West,281,12.7,12.7,86,0.00,CLR,,0.00,WeatherDisplay:10.37,2013-02-01 09:56:00,
2013-02-01 04:58:00,21.9,18.4,30.09,NW,314,5.8,5.8,86,0.00,CLR,,0.00,WeatherDisplay:10.37,2013-02-01 09:58:00,
2013-02-01 05:00:00,21.9,18.4,30.09,WSW,250,8.1,8.1,86,0.00,CLR,,0.00,WeatherDisplay:10.37,2013-02-01 10:00:00,
2013-02-01 05:01:00,21.9,18.4,30.09,WNW,302,9.2,9.2,86,0.00,CLR,,0.00,WeatherDisplay:10.37,2013-02-01 10:01:00,
2013-02-01 05:03:00,21.8,18.3,30.10,WNW,293,6.0,6.0,86,0.00,CLR,,0.00,WeatherDisplay:10.37,2013-02-01 10:03:00,
2013-02-01 05:06:00,21.7,18.2,30.10,WSW,247,5.8,5.8,86,0.00,CLR,,0.00,WeatherDisplay:10.37,2013-02-01 10:06:00,
2013-02-01 05:08:00,21.7,18.2,30.10,NW,315,10.4,10.4,86,0.00,CLR,,0.00,WeatherDisplay:10.37,2013-02-01 10:08:00,
2013-02-01 05:11:00,21.6,17.8,30.11,NNW,347,6.9,6.9,85,0.00,CLR,,0.00,WeatherDisplay:10.37,2013-02-01 10:11:00,
2013-02-01 05:12:00,21.6,18.1,30.11,WNW,302,7.0,7.1,86,0.00,CLR,,0.00,WeatherDisplay:10.37,2013-02-01 10:12:00,
2013-02-01 05:14:00,21.6,18.1,30.11,WSW,250,11.5,11.5,86,0.00,CLR,,0.00,WeatherDisplay:10.37,2013-02-01 10:14:00,
2013-02-01 05:17:00,21.5,17.7,30.12,SW,235,11.5,11.5,85,0.00,CLR,,0.00,WeatherDisplay:10.37,2013-02-01 10:17:00,
2013-02-01 05:19:00,21.5,17.7,30.12,WNW,302,7.0,7.0,85,0.00,CLR,,0.00,WeatherDisplay:10.37,2013-02-01 10:19:00,
2013-02-01 05:22:00,21.6,17.8,30.12,WSW,243,6.9,6.9,85,0.00,CLR,,0.00,WeatherDisplay:10.37,2013-02-01 10:22:00,
2013-02-01 05:23:00,21.6,17.8,30.12,WSW,252,6.9,6.9,85,0.00,CLR,,0.00,WeatherDisplay:10.37,2013-02-01 10:23:00,
2013-02-01 05:24:00,21.6,17.8,30.12,WNW,286,18.0,18.0,85,0.00,CLR,,0.00,WeatherDisplay:10.37,2013-02-01 10:24:00,
2013-02-01 05:27:00,21.5,18.0,30.13,West,281,6.9,6.9,86,0.00,CLR,,0.00,WeatherDisplay:10.37,2013-02-01 10:27:00,
2013-02-01 05:28:00,21.5,18.0,30.13,SW,232,8.1,8.1,86,0.00,CLR,,0.00,WeatherDisplay:10.37,2013-02-01 10:28:00,
2013-02-01 05:29:00,21.4,17.9,30.13,WNW,294,11.5,11.5,86,0.00,CLR,,0.00,WeatherDisplay:10.37,2013-02-01 10:29:00,
2013-02-01 05:32:00,21.3,18.0,30.13,NW,316,11.5,11.5,87,0.00,CLR,,0.00,WeatherDisplay:10.37,2013-02-01 10:32:00,
2013-02-01 05:33:00,21.2,17.9,30.14,WSW,251,11.5,11.5,87,0.00,CLR,,0.00,WeatherDisplay:10.37,2013-02-01 10:33:00,
2013-02-01 05:34:00,21.2,17.9,30.14,NW,306,9.2,9.2,87,0.00,CLR,,0.00,WeatherDisplay:10.37,2013-02-01 10:34:00,
2013-02-01 05:37:00,21.0,18.0,30.14,West,269,7.0,7.0,88,0.00,CLR,,0.00,WeatherDisplay:10.37,2013-02-01 10:37:00,
2013-02-01 05:38:00,21.0,18.0,30.14,NW,307,10.4,10.4,88,0.00,CLR,,0.00,WeatherDisplay:10.37,2013-02-01 10:38:00,
2013-02-01 05:39:00,20.9,17.9,30.14,WSW,257,6.9,6.9,88,0.00,CLR,,0.00,WeatherDisplay:10.37,2013-02-01 10:39:00,
2013-02-01 05:42:00,20.8,17.8,30.14,NW,305,11.5,11.5,88,0.00,CLR,,0.00,WeatherDisplay:10.37,2013-02-01 10:42:00,
2013-02-01 05:43:00,20.7,17.7,30.14,NW,313,11.0,11.0,88,0.00,CLR,,0.00,WeatherDisplay:10.37,2013-02-01 10:43:00,
2013-02-01 05:44:00,20.6,17.6,30.14,West,277,15.0,15.0,88,0.00,CLR,,0.00,WeatherDisplay:10.37,2013-02-01 10:44:00,
2013-02-01 05:47:00,20.4,17.4,30.15,SW,235,11.5,11.5,88,0.00,CLR,,0.00,WeatherDisplay:10.37,2013-02-01 10:47:00,
2013-02-01 05:48:00,20.2,17.2,30.15,WNW,300,11.5,11.5,88,0.00,CLR,,0.00,WeatherDisplay:10.37,2013-02-01 10:48:00,
2013-02-01 05:49:00,20.2,17.2,30.15,WNW,298,13.8,13.8,88,0.00,CLR,,0.00,WeatherDisplay:10.37,2013-02-01 10:49:00,
2013-02-01 05:52:00,19.9,16.7,30.15,WNW,290,5.8,5.8,87,0.00,CLR,,0.00,WeatherDisplay:10.37,2013-02-01 10:52:00,
2013-02-01 05:53:00,19.9,16.7,30.15,WNW,302,8.1,8.1,87,0.00,CLR,,0.00,WeatherDisplay:10.37,2013-02-01 10:53:00,
2013-02-01 05:54:00,19.9,16.7,30.15,WSW,247,6.9,6.9,87,0.00,CLR,,0.00,WeatherDisplay:10.37,2013-02-01 10:54:00,
2013-02-01 05:59:00,19.6,16.4,30.16,West,278,11.5,11.5,87,0.00,CLR,,0.00,WeatherDisplay:10.37,2013-02-01 10:59:00,
2013-02-01 06:04:00,19.2,15.7,30.17,NW,318,11.5,11.5,86,0.00,CLR,,0.00,WeatherDisplay:10.37,2013-02-01 11:04:00,
2013-02-01 06:05:00,19.1,15.3,30.16,NW,320,11.5,11.5,85,0.00,CLR,,0.00,WeatherDisplay:10.37,2013-02-01 11:05:00,
2013-02-01 06:09:00,18.8,14.5,30.17,WNW,284,11.5,11.5,83,0.00,CLR,,0.00,WeatherDisplay:10.37,2013-02-01 11:09:00,
2013-02-01 06:10:00,18.8,14.5,30.17,WSW,254,11.5,11.5,83,0.00,CLR,,0.00,WeatherDisplay:10.37,2013-02-01 11:10:00,
2013-02-01 06:14:00,18.6,14.0,30.17,WNW,283,11.5,11.5,82,0.00,CLR,,0.00,WeatherDisplay:10.37,2013-02-01 11:14:00,
2013-02-01 06:15:00,18.6,14.0,30.17,NW,313,11.5,11.5,82,0.00,CLR,,0.00,WeatherDisplay:10.37,2013-02-01 11:15:00,
2013-02-01 06:16:00,18.6,14.0,30.17,SW,219,11.5,11.5,82,0.00,CLR,,0.00,WeatherDisplay:10.37,2013-02-01 11:16:00,
2013-02-01 06:19:00,18.4,13.5,30.18,NW,321,11.5,11.5,81,0.00,CLR,,0.00,WeatherDisplay:10.37,2013-02-01 11:19:00,
2013-02-01 06:20:00,18.4,13.5,30.18,West,271,7.0,14.0,81,0.00,CLR,,0.00,WeatherDisplay:10.37,2013-02-01 11:20:00,
2013-02-01 06:21:00,18.3,13.2,30.18,NW,305,13.8,13.8,80,0.00,CLR,,0.00,WeatherDisplay:10.37,2013-02-01 11:21:00,
2013-02-01 06:24:00,18.1,12.4,30.19,WNW,293,19.6,19.6,78,0.00,CLR,,0.00,WeatherDisplay:10.37,2013-02-01 11:24:00,
2013-02-01 06:25:00,18.0,12.3,30.18,WNW,286,16.0,16.0,78,0.00,CLR,,0.00,WeatherDisplay:10.37,2013-02-01 11:25:00,
2013-02-01 06:26:00,18.0,12.3,30.18,WSW,250,16.1,16.1,78,0.00,CLR,,0.00,WeatherDisplay:10.37,2013-02-01 11:26:00,
2013-02-01 06:29:00,17.8,12.1,30.19,West,281,10.0,10.0,78,0.00,CLR,,0.00,WeatherDisplay:10.37,2013-02-01 11:29:00,
2013-02-01 06:30:00,17.8,12.1,30.19,NW,310,11.5,11.5,78,0.00,CLR,,0.00,WeatherDisplay:10.37,2013-02-01 11:30:00,
2013-02-01 06:31:00,17.8,11.8,30.19,WSW,246,12.7,12.7,77,0.00,CLR,,0.00,WeatherDisplay:10.37,2013-02-01 11:31:00,
2013-02-01 06:34:00,17.6,11.6,30.19,SSW,212,8.1,8.1,77,0.00,CLR,,0.00,WeatherDisplay:10.37,2013-02-01 11:34:00,
2013-02-01 06:35:00,17.5,11.5,30.19,WNW,292,13.8,13.8,77,0.00,CLR,,0.00,WeatherDisplay:10.37,2013-02-01 11:35:00,
2013-02-01 06:36:00,17.5,11.5,30.19,WNW,283,8.1,8.1,77,0.00,CLR,,0.00,WeatherDisplay:10.37,2013-02-01 11:36:00,
2013-02-01 06:39:00,17.3,11.3,30.20,NNW,335,12.7,12.7,77,0.00,CLR,,0.00,WeatherDisplay:10.37,2013-02-01 11:39:00,
2013-02-01 06:40:00,17.3,11.3,30.20,West,281,11.5,11.5,77,0.00,CLR,,0.00,WeatherDisplay:10.37,2013-02-01 11:40:00,
2013-02-01 06:41:00,17.3,11.3,30.20,West,267,10.4,10.4,77,0.00,CLR,,0.00,WeatherDisplay:10.37,2013-02-01 11:41:00,
2013-02-01 06:45:00,17.1,11.4,30.20,WNW,283,3.0,10.0,78,0.00,CLR,,0.00,WeatherDisplay:10.37,2013-02-01 11:45:00,
2013-02-01 06:46:00,17.0,11.3,30.20,WNW,292,9.0,9.0,78,0.00,CLR,,0.00,WeatherDisplay:10.37,2013-02-01 11:46:00,
2013-02-01 06:47:00,17.0,11.6,30.20,West,270,9.2,9.2,79,0.00,CLR,,0.00,WeatherDisplay:10.37,2013-02-01 11:47:00,
2013-02-01 06:50:00,16.8,11.4,30.21,WNW,289,6.0,9.0,79,0.00,CLR,,0.00,WeatherDisplay:10.37,2013-02-01 11:50:00,
2013-02-01 06:51:00,16.7,11.3,30.21,West,276,13.8,13.8,79,0.00,CLR,,0.00,WeatherDisplay:10.37,2013-02-01 11:51:00,
2013-02-01 06:52:00,16.6,11.2,30.22,NW,308,13.8,13.8,79,0.00,CLR,,0.00,WeatherDisplay:10.37,2013-02-01 11:52:00,
2013-02-01 06:55:00,16.4,10.7,30.22,WSW,238,15.0,15.0,78,0.00,CLR,,0.00,WeatherDisplay:10.37,2013-02-01 11:55:00,
2013-02-01 06:56:00,16.3,10.6,30.22,WNW,295,10.4,10.4,78,0.00,CLR,,0.00,WeatherDisplay:10.37,2013-02-01 11:56:00,
2013-02-01 06:57:00,16.2,10.3,30.22,NW,324,10.4,10.4,77,0.00,CLR,,0.00,WeatherDisplay:10.37,2013-02-01 11:57:00,
2013-02-01 07:00:00,16.0,10.1,30.22,WNW,286,7.0,15.0,77,0.00,CLR,,0.00,WeatherDisplay:10.37,2013-02-01 12:00:00,
2013-02-01 07:01:00,15.9,9.7,30.23,NNW,327,15.0,15.0,76,0.00,CLR,,0.00,WeatherDisplay:10.37,2013-02-01 12:01:00,
2013-02-01 07:02:00,15.8,9.6,30.23,WNW,289,8.1,8.1,76,0.00,CLR,,0.00,WeatherDisplay:10.37,2013-02-01 12:02:00,
2013-02-01 07:05:00,15.6,9.7,30.23,WSW,243,6.9,6.9,77,0.00,CLR,,0.00,WeatherDisplay:10.37,2013-02-01 12:05:00,
2013-02-01 07:06:00,15.6,9.7,30.23,WNW,302,7.0,7.0,77,0.00,CLR,,0.00,WeatherDisplay:10.37,2013-02-01 12:06:00,
2013-02-01 07:07:00,15.5,9.3,30.23,WNW,302,9.2,9.2,76,0.00,CLR,,0.00,WeatherDisplay:10.37,2013-02-01 12:07:00,
2013-02-01 07:10:00,15.4,8.6,30.23,NW,307,10.4,10.4,74,0.00,CLR,,0.00,WeatherDisplay:10.37,2013-02-01 12:10:00,
2013-02-01 07:12:00,15.3,8.5,30.23,NW,310,10.4,10.4,74,0.00,CLR,,0.00,WeatherDisplay:10.37,2013-02-01 12:12:00,
2013-02-01 07:13:00,15.3,8.2,30.23,WSW,255,8.1,8.1,73,0.00,CLR,,0.00,WeatherDisplay:10.37,2013-02-01 12:13:00,
2013-02-01 07:15:00,15.2,8.4,30.23,NW,309,10.4,10.4,74,0.00,CLR,,0.00,WeatherDisplay:10.37,2013-02-01 12:15:00,
2013-02-01 07:17:00,15.1,8.0,30.23,NW,310,5.0,5.0,73,0.00,CLR,,0.00,WeatherDisplay:10.37,2013-02-01 12:17:00,
2013-02-01 07:18:00,15.0,8.2,30.24,WSW,257,10.4,10.4,74,0.00,CLR,,0.00,WeatherDisplay:10.37,2013-02-01 12:18:00,
2013-02-01 07:21:00,14.9,7.5,30.24,NNW,328,11.5,11.5,72,0.00,CLR,,0.00,WeatherDisplay:10.37,2013-02-01 12:21:00,
2013-02-01 07:22:00,14.9,7.2,30.24,WNW,302,18.4,18.4,71,0.00,CLR,,0.00,WeatherDisplay:10.37,2013-02-01 12:22:00,
2013-02-01 07:23:00,14.9,7.5,30.24,West,261,11.5,11.5,72,0.00,CLR,,0.00,WeatherDisplay:10.37,2013-02-01 12:23:00,
2013-02-01 07:26:00,14.8,7.4,30.24,NW,305,10.4,10.4,72,0.00,CLR,,0.00,WeatherDisplay:10.37,2013-02-01 12:26:00,
2013-02-01 07:27:00,14.8,7.4,30.24,NW,310,9.2,9.2,72,0.00,CLR,,0.00,WeatherDisplay:10.37,2013-02-01 12:27:00,
2013-02-01 07:28:00,14.8,7.4,30.24,WNW,303,9.2,9.2,72,0.00,CLR,,0.00,WeatherDisplay:10.37,2013-02-01 12:28:00,
2013-02-01 07:31:00,14.7,7.6,30.25,West,271,4.6,4.6,73,0.00,CLR,,0.00,WeatherDisplay:10.37,2013-02-01 12:31:00,
2013-02-01 07:32:00,14.6,7.5,30.25,WNW,295,8.0,8.0,73,0.00,CLR,,0.00,WeatherDisplay:10.37,2013-02-01 12:32:00,
2013-02-01 07:33:00,14.6,7.5,30.25,WNW,293,8.1,8.1,73,0.00,CLR,,0.00,WeatherDisplay:10.37,2013-02-01 12:33:00,
2013-02-01 07:36:00,14.5,7.4,30.25,WNW,299,6.0,6.0,73,0.00,CLR,,0.00,WeatherDisplay:10.37,2013-02-01 12:36:00,
2013-02-01 07:38:00,14.4,7.3,30.25,WSW,254,9.2,9.2,73,0.00,CLR,,0.00,WeatherDisplay:10.37,2013-02-01 12:38:00,
2013-02-01 07:41:00,14.3,7.2,30.25,WSW,256,6.9,6.9,73,0.00,CLR,,0.00,WeatherDisplay:10.37,2013-02-01 12:41:00,
2013-02-01 07:43:00,14.3,7.5,30.26,WNW,283,12.7,12.7,74,0.00,CLR,,0.00,WeatherDisplay:10.37,2013-02-01 12:43:00,
2013-02-01 07:46:00,14.2,7.4,30.26,WNW,303,8.1,8.1,74,0.00,CLR,,0.00,WeatherDisplay:10.37,2013-02-01 12:46:00,
2013-02-01 07:48:00,14.2,7.4,30.26,WSW,243,4.0,4.0,74,0.00,CLR,,0.00,WeatherDisplay:10.37,2013-02-01 12:48:00,
2013-02-01 07:52:00,14.1,7.3,30.27,WSW,254,10.4,10.4,74,0.00,CLR,,0.00,WeatherDisplay:10.37,2013-02-01 12:52:00,
2013-02-01 07:53:00,14.1,7.6,30.27,WSW,253,12.7,12.7,75,0.00,CLR,,0.00,WeatherDisplay:10.37,2013-02-01 12:53:00,
2013-02-01 07:54:00,14.1,7.6,30.27,West,280,12.7,12.7,75,0.00,CLR,,0.00,WeatherDisplay:10.37,2013-02-01 12:54:00,
2013-02-01 07:57:00,14.0,7.2,30.27,WSW,238,11.5,11.5,74,0.00,CLR,,0.00,WeatherDisplay:10.37,2013-02-01 12:57:00,
2013-02-01 07:58:00,14.0,7.5,30.27,WSW,243,9.2,9.2,75,0.00,CLR,,0.00,WeatherDisplay:10.37,2013-02-01 12:58:00,
2013-02-01 07:59:00,14.0,7.5,30.27,WSW,253,9.2,9.2,75,0.00,CLR,,0.00,WeatherDisplay:10.37,2013-02-01 12:59:00,
2013-02-01 08:02:00,14.0,7.2,30.28,NW,316,11.5,11.5,74,0.00,CLR,,0.00,WeatherDisplay:10.37,2013-02-01 13:02:00,
2013-02-01 08:03:00,14.0,7.2,30.28,NW,311,10.4,10.4,74,0.00,CLR,,0.00,WeatherDisplay:10.37,2013-02-01 13:03:00,
2013-02-01 08:04:00,14.0,7.2,30.28,WNW,285,12.7,12.7,74,0.00,CLR,,0.00,WeatherDisplay:10.37,2013-02-01 13:04:00,
2013-02-01 08:07:00,14.0,7.5,30.28,WNW,295,8.1,8.1,75,0.00,CLR,,0.00,WeatherDisplay:10.37,2013-02-01 13:07:00,
2013-02-01 08:09:00,14.1,7.6,30.28,WNW,294,8.0,8.0,75,0.00,CLR,,0.00,WeatherDisplay:10.37,2013-02-01 13:09:00,
2013-02-01 08:12:00,14.1,7.0,30.28,West,267,10.4,10.4,73,0.00,CLR,,0.00,WeatherDisplay:10.37,2013-02-01 13:12:00,
2013-02-01 08:14:00,14.1,6.7,30.29,West,281,10.4,10.4,72,0.00,CLR,,0.00,WeatherDisplay:10.37,2013-02-01 13:14:00,
2013-02-01 08:17:00,14.1,6.7,30.29,NW,324,12.0,12.0,72,0.00,CLR,,0.00,WeatherDisplay:10.37,2013-02-01 13:17:00,
2013-02-01 08:19:00,14.1,6.7,30.29,NW,313,12.7,12.7,72,0.00,CLR,,0.00,WeatherDisplay:10.37,2013-02-01 13:19:00,
2013-02-01 08:20:00,14.1,6.7,30.29,WSW,254,9.2,9.2,72,0.00,CLR,,0.00,WeatherDisplay:10.37,2013-02-01 13:20:00,
2013-02-01 08:22:00,14.1,6.7,30.29,WNW,290,11.5,11.5,72,0.00,CLR,,0.00,WeatherDisplay:10.37,2013-02-01 13:22:00,
2013-02-01 08:24:00,14.1,6.7,30.29,NW,308,10.4,10.4,72,0.00,CLR,,0.00,WeatherDisplay:10.37,2013-02-01 13:24:00,
2013-02-01 08:25:00,14.1,6.4,30.29,NW,310,8.1,8.1,71,0.00,CLR,,0.00,WeatherDisplay:10.37,2013-02-01 13:25:00,
2013-02-01 08:28:00,14.1,5.5,30.30,NW,305,11.5,11.5,68,0.00,CLR,,0.00,WeatherDisplay:10.37,2013-02-01 13:28:00,
2013-02-01 08:30:00,14.0,6.0,30.30,WNW,286,3.0,17.0,70,0.00,CLR,,0.00,WeatherDisplay:10.37,2013-02-01 13:30:00,
2013-02-01 08:33:00,14.0,6.0,30.30,NW,305,11.5,11.5,70,0.00,CLR,,0.00,WeatherDisplay:10.37,2013-02-01 13:33:00,
2013-02-01 08:35:00,14.0,5.4,30.30,WNW,302,16.1,16.1,68,0.00,CLR,,0.00,WeatherDisplay:10.37,2013-02-01 13:35:00,
2013-02-01 08:38:00,14.0,5.4,30.30,WSW,243,12.7,12.7,68,0.00,CLR,,0.00,WeatherDisplay:10.37,2013-02-01 13:38:00,
2013-02-01 08:40:00,14.0,5.4,30.30,WNW,295,9.2,9.2,68,0.00,CLR,,0.00,WeatherDisplay:10.37,2013-02-01 13:40:00,
2013-02-01 08:41:00,14.0,5.4,30.30,WNW,286,15.0,15.0,68,0.00,CLR,,0.00,WeatherDisplay:10.37,2013-02-01 13:41:00,
2013-02-01 08:43:00,14.1,5.1,30.30,NW,320,10.4,10.4,67,0.00,CLR,,0.00,WeatherDisplay:10.37,2013-02-01 13:43:00,
2013-02-01 08:45:00,14.1,4.5,30.30,NW,307,10.0,10.0,65,0.00,CLR,,0.00,WeatherDisplay:10.37,2013-02-01 13:45:00,
2013-02-01 08:46:00,14.1,4.5,30.30,NW,326,11.5,11.5,65,0.00,CLR,,0.00,WeatherDisplay:10.37,2013-02-01 13:46:00,
2013-02-01 08:48:00,14.0,4.4,30.31,NW,323,13.8,13.8,65,0.00,CLR,,0.00,WeatherDisplay:10.37,2013-02-01 13:48:00,
2013-02-01 08:51:00,14.0,4.4,30.31,West,279,6.9,6.9,65,0.00,CLR,,0.00,WeatherDisplay:10.37,2013-02-01 13:51:00,
2013-02-01 08:52:00,14.0,4.7,30.31,WNW,292,9.0,9.0,66,0.00,CLR,,0.00,WeatherDisplay:10.37,2013-02-01 13:52:00,
2013-02-01 08:53:00,14.0,3.7,30.31,WSW,257,11.5,11.5,63,0.00,CLR,,0.00,WeatherDisplay:10.37,2013-02-01 13:53:00,
2013-02-01 08:56:00,14.0,4.1,30.31,WNW,300,12.0,12.0,64,0.00,CLR,,0.00,WeatherDisplay:10.37,2013-02-01 13:56:00,
2013-02-01 08:57:00,14.0,3.7,30.31,WNW,289,10.4,10.4,63,0.00,CLR,,0.00,WeatherDisplay:10.37,2013-02-01 13:57:00,
2013-02-01 08:58:00,14.0,3.7,30.32,WNW,299,11.5,11.5,63,0.00,CLR,,0.00,WeatherDisplay:10.37,2013-02-01 13:58:00,
2013-02-01 09:02:00,13.9,3.3,30.32,NW,313,15.0,15.0,62,0.00,CLR,,0.00,WeatherDisplay:10.37,2013-02-01 14:02:00,
2013-02-01 09:03:00,13.9,2.9,30.32,NW,305,13.8,13.8,61,0.00,CLR,,0.00,WeatherDisplay:10.37,2013-02-01 14:03:00,
2013-02-01 09:07:00,14.0,4.1,30.32,NW,313,3.5,4.4,64,0.00,CLR,,0.00,WeatherDisplay:10.37,2013-02-01 14:07:00,
2013-02-01 09:09:00,14.0,3.0,30.32,WSW,254,12.7,12.7,61,0.00,CLR,,0.00,WeatherDisplay:10.37,2013-02-01 14:09:00,
2013-02-01 09:12:00,14.0,3.4,30.33,WSW,238,15.0,15.0,62,0.00,CLR,,0.00,WeatherDisplay:10.37,2013-02-01 14:12:00,
2013-02-01 09:14:00,13.9,2.9,30.33,NNW,331,15.0,15.0,61,0.00,CLR,,0.00,WeatherDisplay:10.37,2013-02-01 14:14:00,
2013-02-01 09:17:00,14.0,4.4,30.33,WSW,246,6.9,6.9,65,0.00,CLR,,0.00,WeatherDisplay:10.37,2013-02-01 14:17:00,
2013-02-01 09:19:00,14.2,3.9,30.33,NW,308,12.7,12.7,63,0.00,CLR,,0.00,WeatherDisplay:10.37,2013-02-01 14:19:00,
2013-02-01 09:22:00,14.1,3.1,30.33,West,269,15.0,15.0,61,0.00,CLR,,0.00,WeatherDisplay:10.37,2013-02-01 14:22:00,
2013-02-01 09:23:00,14.1,3.1,30.34,NW,305,15.0,15.0,61,0.00,CLR,,0.00,WeatherDisplay:10.37,2013-02-01 14:23:00,
2013-02-01 09:24:00,14.0,3.0,30.34,NW,310,15.0,15.0,61,0.00,CLR,,0.00,WeatherDisplay:10.37,2013-02-01 14:24:00,
2013-02-01 09:27:00,13.9,2.9,30.34,WSW,258,11.5,11.5,61,0.00,CLR,,0.00,WeatherDisplay:10.37,2013-02-01 14:27:00,
2013-02-01 09:28:00,13.9,2.9,30.34,NW,310,11.5,11.5,61,0.00,CLR,,0.00,WeatherDisplay:10.37,2013-02-01 14:28:00,
2013-02-01 09:29:00,13.8,2.8,30.34,NNW,335,9.2,9.2,61,0.00,CLR,,0.00,WeatherDisplay:10.37,2013-02-01 14:29:00,
2013-02-01 09:33:00,13.6,2.3,30.34,WNW,288,11.5,11.5,60,0.00,CLR,,0.00,WeatherDisplay:10.37,2013-02-01 14:33:00,
2013-02-01 09:35:00,13.4,2.1,30.34,WNW,302,18.4,18.4,60,0.00,CLR,,0.00,WeatherDisplay:10.37,2013-02-01 14:35:00,
2013-02-01 09:38:00,13.5,1.8,30.34,WSW,237,13.8,13.8,59,0.00,CLR,,0.00,WeatherDisplay:10.37,2013-02-01 14:38:00,
2013-02-01 09:40:00,13.5,2.2,30.34,WNW,283,11.5,11.5,60,0.00,CLR,,0.00,WeatherDisplay:10.37,2013-02-01 14:40:00,
2013-02-01 09:43:00,13.8,3.2,30.35,NW,318,6.9,6.9,62,0.00,CLR,,0.00,WeatherDisplay:10.37,2013-02-01 14:43:00,
2013-02-01 09:44:00,13.8,3.2,30.35,NW,314,6.9,6.9,62,0.00,CLR,,0.00,WeatherDisplay:10.37,2013-02-01 14:44:00,
2013-02-01 09:45:00,13.9,2.9,30.35,WNW,290,9.2,9.2,61,0.00,CLR,,0.00,WeatherDisplay:10.37,2013-02-01 14:45:00,
2013-02-01 09:48:00,13.7,2.0,30.35,NW,316,15.0,15.0,59,0.00,CLR,,0.00,WeatherDisplay:10.37,2013-02-01 14:48:00,
2013-02-01 09:49:00,13.7,2.0,30.35,NW,324,15.0,15.0,59,0.00,CLR,,0.00,WeatherDisplay:10.37,2013-02-01 14:49:00,
2013-02-01 09:50:00,13.7,2.0,30.35,WSW,238,11.5,11.5,59,0.00,CLR,,0.00,WeatherDisplay:10.37,2013-02-01 14:50:00,
2013-02-01 09:51:00,13.7,2.4,30.35,WNW,296,11.5,11.5,60,0.00,CLR,,0.00,WeatherDisplay:10.37,2013-02-01 14:51:00,
2013-02-01 09:54:00,13.7,2.4,30.35,WNW,296,11.5,11.5,60,0.00,CLR,,0.00,WeatherDisplay:10.37,2013-02-01 14:54:00,
2013-02-01 09:55:00,13.7,1.6,30.35,WNW,286,11.5,11.5,58,0.00,CLR,,0.00,WeatherDisplay:10.37,2013-02-01 14:55:00,
2013-02-01 09:56:00,13.7,1.6,30.35,West,281,11.5,11.5,58,0.00,CLR,,0.00,WeatherDisplay:10.37,2013-02-01 14:56:00,
2013-02-01 09:59:00,13.6,1.5,30.35,NNW,338,15.0,15.0,58,0.00,CLR,,0.00,WeatherDisplay:10.37,2013-02-01 14:59:00,
2013-02-01 10:00:00,13.5,0.7,30.35,NW,314,12.7,12.7,56,0.00,CLR,,0.00,WeatherDisplay:10.37,2013-02-01 15:00:00,
2013-02-01 10:01:00,13.4,0.6,30.35,WNW,286,14.0,14.0,56,0.00,CLR,,0.00,WeatherDisplay:10.37,2013-02-01 15:01:00,
2013-02-01 10:04:00,13.5,1.8,30.35,NW,317,11.5,11.5,59,0.00,CLR,,0.00,WeatherDisplay:10.37,2013-02-01 15:04:00,
2013-02-01 10:06:00,13.5,1.4,30.35,WNW,283,11.5,11.5,58,0.00,CLR,,0.00,WeatherDisplay:10.37,2013-02-01 15:06:00,
2013-02-01 10:10:00,13.7,2.3,30.35,WNW,298,5.0,12.0,60,0.00,CLR,,0.00,WeatherDisplay:10.37,2013-02-01 15:10:00,
2013-02-01 10:11:00,13.9,2.6,30.36,NW,316,10.4,10.4,60,0.00,CLR,,0.00,WeatherDisplay:10.37,2013-02-01 15:11:00,
2013-02-01 10:15:00,14.0,2.3,30.36,NW,326,11.5,11.5,59,0.00,CLR,,0.00,WeatherDisplay:10.37,2013-02-01 15:15:00,
2013-02-01 10:16:00,14.0,2.3,30.36,NW,307,11.5,11.5,59,0.00,CLR,,0.00,WeatherDisplay:10.37,2013-02-01 15:16:00,
2013-02-01 10:20:00,14.1,2.7,30.36,WNW,294,9.2,9.2,60,0.00,CLR,,0.00,WeatherDisplay:10.37,2013-02-01 15:20:00,
2013-02-01 10:21:00,14.1,2.7,30.36,NW,321,11.5,11.5,60,0.00,CLR,,0.00,WeatherDisplay:10.37,2013-02-01 15:21:00,
2013-02-01 10:22:00,14.1,2.4,30.36,NW,323,13.8,13.8,59,0.00,CLR,,0.00,WeatherDisplay:10.37,2013-02-01 15:22:00,
2013-02-01 10:25:00,14.0,2.3,30.36,West,269,11.5,11.5,59,0.00,CLR,,0.00,WeatherDisplay:10.37,2013-02-01 15:25:00,
2013-02-01 10:26:00,13.9,2.6,30.36,NW,305,13.8,13.8,60,0.00,CLR,,0.00,WeatherDisplay:10.37,2013-02-01 15:26:00,
2013-02-01 10:27:00,14.0,3.0,30.36,NW,305,11.0,11.0,61,0.00,CLR,,0.00,WeatherDisplay:10.37,2013-02-01 15:27:00,
2013-02-01 10:30:00,14.3,3.3,30.37,WSW,246,8.1,8.1,61,0.00,CLR,,0.00,WeatherDisplay:10.37,2013-02-01 15:30:00,
2013-02-01 10:31:00,14.3,4.0,30.37,SSW,209,8.1,8.1,63,0.00,CLR,,0.00,WeatherDisplay:10.37,2013-02-01 15:31:00,
2013-02-01 10:32:00,14.6,3.9,30.37,WSW,252,5.0,5.1,62,0.00,CLR,,0.00,WeatherDisplay:10.37,2013-02-01 15:32:00,
2013-02-01 10:35:00,14.9,4.2,30.37,WNW,293,12.7,12.7,62,0.00,CLR,,0.00,WeatherDisplay:10.37,2013-02-01 15:35:00,
2013-02-01 10:36:00,14.9,4.2,30.37,WNW,283,11.5,11.5,62,0.00,CLR,,0.00,WeatherDisplay:10.37,2013-02-01 15:36:00,
2013-02-01 10:37:00,14.9,4.2,30.37,WSW,255,11.5,11.5,62,0.00,CLR,,0.00,WeatherDisplay:10.37,2013-02-01 15:37:00,
2013-02-01 10:38:00,15.1,4.4,30.36,WSW,250,10.4,10.4,62,0.00,CLR,,0.00,WeatherDisplay:10.37,2013-02-01 15:38:00,
2013-02-01 10:40:00,15.2,4.5,30.36,NW,316,11.0,11.0,62,0.00,CLR,,0.00,WeatherDisplay:10.37,2013-02-01 15:40:00,
2013-02-01 10:41:00,15.1,3.7,30.36,West,269,12.7,12.7,60,0.00,CLR,,0.00,WeatherDisplay:10.37,2013-02-01 15:41:00,
2013-02-01 10:42:00,15.1,4.1,30.36,WSW,245,12.7,12.7,61,0.00,CLR,,0.00,WeatherDisplay:10.37,2013-02-01 15:42:00,
2013-02-01 10:43:00,15.2,4.9,30.36,WNW,294,8.1,8.1,63,0.00,CLR,,0.00,WeatherDisplay:10.37,2013-02-01 15:43:00,
2013-02-01 10:45:00,15.4,4.7,30.36,WNW,298,9.2,9.2,62,0.00,CLR,,0.00,WeatherDisplay:10.37,2013-02-01 15:45:00,
2013-02-01 10:46:00,15.5,4.8,30.36,WNW,292,5.0,5.0,62,0.00,CLR,,0.00,WeatherDisplay:10.37,2013-02-01 15:46:00,
2013-02-01 10:47:00,15.5,4.8,30.36,WNW,300,4.6,4.6,62,0.00,CLR,,0.00,WeatherDisplay:10.37,2013-02-01 15:47:00,
2013-02-01 10:48:00,15.6,4.9,30.36,WNW,292,9.2,9.2,62,0.00,CLR,,0.00,WeatherDisplay:10.37,2013-02-01 15:48:00,
2013-02-01 10:50:00,15.8,5.4,30.36,WSW,246,6.9,6.9,63,0.00,CLR,,0.00,WeatherDisplay:10.37,2013-02-01 15:50:00,
2013-02-01 10:51:00,16.0,5.6,30.36,WNW,295,6.9,6.9,63,0.00,CLR,,0.00,WeatherDisplay:10.37,2013-02-01 15:51:00,
2013-02-01 10:52:00,16.1,6.1,30.36,WSW,252,9.2,9.2,64,0.00,CLR,,0.00,WeatherDisplay:10.37,2013-02-01 15:52:00,
2013-02-01 10:53:00,16.2,6.1,30.37,NW,323,8.1,8.1,64,0.00,CLR,,0.00,WeatherDisplay:10.37,2013-02-01 15:53:00,
2013-02-01 10:55:00,16.4,6.0,30.37,NW,317,5.8,5.8,63,0.00,CLR,,0.00,WeatherDisplay:10.37,2013-02-01 15:55:00,
2013-02-01 10:57:00,16.4,6.0,30.37,West,273,11.5,11.5,63,0.00,CLR,,0.00,WeatherDisplay:10.37,2013-02-01 15:57:00,
2013-02-01 10:58:00,16.2,4.7,30.37,NNW,333,13.8,13.8,60,0.00,CLR,,0.00,WeatherDisplay:10.37,2013-02-01 15:58:00,
2013-02-01 11:01:00,16.1,5.0,30.37,West,276,9.2,9.2,61,0.00,CLR,,0.00,WeatherDisplay:10.37,2013-02-01 16:01:00,
2013-02-01 11:02:00,16.4,6.7,30.37,NW,316,5.8,5.8,65,0.00,CLR,,0.00,WeatherDisplay:10.37,2013-02-01 16:02:00,
2013-02-01 11:04:00,16.7,6.6,30.38,WSW,254,10.4,10.4,64,0.00,CLR,,0.00,WeatherDisplay:10.37,2013-02-01 16:04:00,
2013-02-01 11:06:00,17.0,6.9,30.38,WNW,285,9.2,9.2,64,0.00,CLR,,0.00,WeatherDisplay:10.37,2013-02-01 16:06:00,
2013-02-01 11:07:00,17.0,6.6,30.38,WSW,245,10.4,10.4,63,0.00,CLR,,0.00,WeatherDisplay:10.37,2013-02-01 16:07:00,
2013-02-01 11:09:00,17.3,7.2,30.38,NNW,345,8.1,8.1,64,0.00,CLR,,0.00,WeatherDisplay:10.37,2013-02-01 16:09:00,
2013-02-01 11:11:00,17.5,7.0,30.38,WSW,250,12.0,12.0,63,0.00,CLR,,0.00,WeatherDisplay:10.37,2013-02-01 16:11:00,
2013-02-01 11:12:00,17.3,5.8,30.38,NW,311,12.7,12.7,60,0.00,CLR,,0.00,WeatherDisplay:10.37,2013-02-01 16:12:00,
2013-02-01 11:13:00,17.3,5.8,30.38,West,273,10.4,10.4,60,0.00,CLR,,0.00,WeatherDisplay:10.37,2013-02-01 16:13:00,
2013-02-01 11:14:00,17.1,5.9,30.38,WNW,292,8.0,8.0,61,0.00,CLR,,0.00,WeatherDisplay:10.37,2013-02-01 16:14:00,
2013-02-01 11:16:00,16.9,5.4,30.38,West,270,6.9,7.2,60,0.00,CLR,,0.00,WeatherDisplay:10.37,2013-02-01 16:16:00,
2013-02-01 11:17:00,16.8,5.7,30.38,West,275,13.8,13.8,61,0.00,CLR,,0.00,WeatherDisplay:10.37,2013-02-01 16:17:00,
2013-02-01 11:18:00,16.8,5.7,30.38,WNW,295,10.4,10.4,61,0.00,CLR,,0.00,WeatherDisplay:10.37,2013-02-01 16:18:00,
2013-02-01 11:20:00,16.9,6.1,30.38,WSW,247,6.9,6.9,62,0.00,CLR,,0.00,WeatherDisplay:10.37,2013-02-01 16:20:00,
2013-02-01 11:21:00,17.1,6.7,30.38,WSW,243,6.9,6.9,63,0.00,CLR,,0.00,WeatherDisplay:10.37,2013-02-01 16:21:00,
2013-02-01 11:22:00,17.2,6.8,30.38,WNW,295,5.8,5.8,63,0.00,CLR,,0.00,WeatherDisplay:10.37,2013-02-01 16:22:00,
2013-02-01 11:23:00,17.3,6.8,30.38,NW,314,4.6,4.6,63,0.00,CLR,,0.00,WeatherDisplay:10.37,2013-02-01 16:23:00,
2013-02-01 11:25:00,17.5,7.4,30.38,NNW,330,6.9,6.9,64,0.00,CLR,,0.00,WeatherDisplay:10.37,2013-02-01 16:25:00,
2013-02-01 11:27:00,17.6,6.8,30.38,West,274,8.1,8.1,62,0.00,CLR,,0.00,WeatherDisplay:10.37,2013-02-01 16:27:00,
2013-02-01 11:28:00,17.8,7.7,30.38,WSW,251,3.5,3.5,64,0.00,CLR,,0.00,WeatherDisplay:10.37,2013-02-01 16:28:00,
2013-02-01 11:31:00,18.1,6.9,30.38,West,259,6.9,6.9,61,0.00,CLR,,0.00,WeatherDisplay:10.37,2013-02-01 16:31:00,
2013-02-01 11:32:00,18.2,7.3,30.38,WSW,240,7.0,7.0,62,0.00,CLR,,0.00,WeatherDisplay:10.37,2013-02-01 16:32:00,
2013-02-01 11:33:00,18.3,7.4,30.38,SSW,205,6.9,6.9,62,0.00,CLR,,0.00,WeatherDisplay:10.37,2013-02-01 16:33:00,
2013-02-01 11:34:00,18.3,7.1,30.38,NNW,327,6.9,7.4,61,0.00,CLR,,0.00,WeatherDisplay:10.37,2013-02-01 16:34:00,
2013-02-01 11:36:00,18.2,6.6,30.39,WNW,299,8.1,8.1,60,0.00,CLR,,0.00,WeatherDisplay:10.37,2013-02-01 16:36:00,
2013-02-01 11:37:00,18.3,7.4,30.39,WNW,286,4.6,4.6,62,0.00,CLR,,0.00,WeatherDisplay:10.37,2013-02-01 16:37:00,
2013-02-01 11:38:00,18.4,8.2,30.39,WSW,258,5.8,5.8,64,0.00,CLR,,0.00,WeatherDisplay:10.37,2013-02-01 16:38:00,
2013-02-01 11:39:00,18.5,8.0,30.39,WSW,243,6.0,6.0,63,0.00,CLR,,0.00,WeatherDisplay:10.37,2013-02-01 16:39:00,
2013-02-01 11:41:00,18.7,7.5,30.39,NW,305,9.2,9.2,61,0.00,CLR,,0.00,WeatherDisplay:10.37,2013-02-01 16:41:00,
2013-02-01 11:42:00,18.8,7.9,30.39,WSW,241,8.1,8.1,62,0.00,CLR,,0.00,WeatherDisplay:10.37,2013-02-01 16:42:00,
2013-02-01 11:43:00,18.9,8.0,30.39,SW,228,9.0,9.0,62,0.00,CLR,,0.00,WeatherDisplay:10.37,2013-02-01 16:43:00,
2013-02-01 11:44:00,18.8,7.2,30.39,WSW,243,10.4,10.4,60,0.00,CLR,,0.00,WeatherDisplay:10.37,2013-02-01 16:44:00,
2013-02-01 11:46:00,18.9,7.3,30.39,WSW,258,8.1,8.1,60,0.00,CLR,,0.00,WeatherDisplay:10.37,2013-02-01 16:46:00,
2013-02-01 11:48:00,18.9,7.3,30.39,WSW,257,6.9,6.9,60,0.00,CLR,,0.00,WeatherDisplay:10.37,2013-02-01 16:48:00,
2013-02-01 11:49:00,18.9,6.9,30.38,WNW,296,11.5,11.5,59,0.00,CLR,,0.00,WeatherDisplay:10.37,2013-02-01 16:49:00,
2013-02-01 11:51:00,19.1,8.2,30.38,WSW,249,8.1,8.1,62,0.00,CLR,,0.00,WeatherDisplay:10.37,2013-02-01 16:51:00,
2013-02-01 11:53:00,19.1,7.1,30.38,WSW,258,8.1,8.1,59,0.00,CLR,,0.00,WeatherDisplay:10.37,2013-02-01 16:53:00,
2013-02-01 11:54:00,19.1,7.1,30.38,NW,307,4.6,4.6,59,0.00,CLR,,0.00,WeatherDisplay:10.37,2013-02-01 16:54:00,
2013-02-01 11:56:00,19.3,8.0,30.38,SW,229,5.8,5.8,61,0.00,CLR,,0.00,WeatherDisplay:10.37,2013-02-01 16:56:00,
2013-02-01 11:59:00,19.6,8.3,30.38,NNW,328,4.6,4.6,61,0.00,CLR,,0.00,WeatherDisplay:10.37,2013-02-01 16:59:00,
2013-02-01 12:01:00,19.7,8.8,30.38,SW,221,9.2,9.2,62,0.00,CLR,,0.00,WeatherDisplay:10.37,2013-02-01 17:01:00,
2013-02-01 12:04:00,19.8,8.1,30.38,WSW,242,6.9,6.9,60,0.00,CLR,,0.00,WeatherDisplay:10.37,2013-02-01 17:04:00,
2013-02-01 12:06:00,19.9,8.2,30.38,WNW,298,13.0,13.0,60,0.00,CLR,,0.00,WeatherDisplay:10.37,2013-02-01 17:06:00,
2013-02-01 12:09:00,20.1,8.8,30.38,NW,313,6.0,6.0,61,0.00,CLR,,0.00,WeatherDisplay:10.37,2013-02-01 17:09:00,
2013-02-01 12:10:00,20.1,8.4,30.38,SW,222,12.7,12.7,60,0.00,CLR,,0.00,WeatherDisplay:10.37,2013-02-01 17:10:00,
2013-02-01 12:13:00,20.2,8.9,30.38,East,81,8.1,8.1,61,0.00,CLR,,0.00,WeatherDisplay:10.37,2013-02-01 17:13:00,
2013-02-01 12:14:00,20.1,8.4,30.38,West,262,8.1,8.1,60,0.00,CLR,,0.00,WeatherDisplay:10.37,2013-02-01 17:14:00,
2013-02-01 12:15:00,20.2,8.5,30.38,SW,236,6.9,6.9,60,0.00,CLR,,0.00,WeatherDisplay:10.37,2013-02-01 17:15:00,
2013-02-01 12:18:00,20.4,8.7,30.38,SW,226,11.5,11.5,60,0.00,CLR,,0.00,WeatherDisplay:10.37,2013-02-01 17:18:00,
2013-02-01 12:20:00,20.2,7.8,30.38,West,272,11.5,11.5,58,0.00,CLR,,0.00,WeatherDisplay:10.37,2013-02-01 17:20:00,
2013-02-01 12:24:00,20.2,8.1,30.38,West,274,11.5,11.5,59,0.00,CLR,,0.00,WeatherDisplay:10.37,2013-02-01 17:24:00,
2013-02-01 12:25:00,20.1,8.4,30.38,SW,235,11.5,11.5,60,0.00,CLR,,0.00,WeatherDisplay:10.37,2013-02-01 17:25:00,
2013-02-01 12:29:00,19.7,8.0,30.38,West,262,8.1,8.1,60,0.00,CLR,,0.00,WeatherDisplay:10.37,2013-02-01 17:29:00,
2013-02-01 12:30:00,19.6,7.6,30.38,WSW,250,9.2,9.2,59,0.00,CLR,,0.00,WeatherDisplay:10.37,2013-02-01 17:30:00,
2013-02-01 12:34:00,20.0,9.1,30.37,West,271,10.0,10.0,62,0.00,CLR,,0.00,WeatherDisplay:10.37,2013-02-01 17:34:00,
2013-02-01 12:35:00,20.1,8.8,30.37,West,262,10.4,10.4,61,0.00,CLR,,0.00,WeatherDisplay:10.37,2013-02-01 17:35:00,
2013-02-01 12:39:00,20.0,9.1,30.37,SW,229,11.5,11.5,62,0.00,CLR,,0.00,WeatherDisplay:10.37,2013-02-01 17:39:00,
2013-02-01 12:40:00,20.1,9.5,30.37,WSW,257,6.9,6.9,63,0.00,CLR,,0.00,WeatherDisplay:10.37,2013-02-01 17:40:00,
2013-02-01 12:41:00,20.1,9.2,30.37,WSW,238,4.6,4.6,62,0.00,CLR,,0.00,WeatherDisplay:10.37,2013-02-01 17:41:00,
2013-02-01 12:42:00,20.1,8.8,30.37,WSW,250,11.5,11.5,61,0.00,CLR,,0.00,WeatherDisplay:10.37,2013-02-01 17:42:00,
2013-02-01 12:45:00,20.0,7.9,30.37,West,274,7.0,14.0,59,0.00,CLR,,0.00,WeatherDisplay:10.37,2013-02-01 17:45:00,
2013-02-01 12:46:00,19.7,7.7,30.37,WSW,253,5.0,5.0,59,0.00,CLR,,0.00,WeatherDisplay:10.37,2013-02-01 17:46:00,
2013-02-01 12:47:00,19.6,8.0,30.37,South,189,8.1,8.1,60,0.00,CLR,,0.00,WeatherDisplay:10.37,2013-02-01 17:47:00,
2013-02-01 12:50:00,19.8,8.5,30.37,WSW,243,4.6,4.6,61,0.00,CLR,,0.00,WeatherDisplay:10.37,2013-02-01 17:50:00,
2013-02-01 12:51:00,19.8,8.9,30.37,WNW,293,7.0,7.0,62,0.00,CLR,,0.00,WeatherDisplay:10.37,2013-02-01 17:51:00,
2013-02-01 12:52:00,19.9,9.0,30.37,WNW,295,6.9,6.9,62,0.00,CLR,,0.00,WeatherDisplay:10.37,2013-02-01 17:52:00,
2013-02-01 12:53:00,20.0,8.7,30.37,SW,215,8.0,8.0,61,0.00,CLR,,0.00,WeatherDisplay:10.37,2013-02-01 17:53:00,
2013-02-01 12:55:00,20.2,8.5,30.37,West,259,3.0,8.0,60,0.00,CLR,,0.00,WeatherDisplay:10.37,2013-02-01 17:55:00,
2013-02-01 12:56:00,20.3,8.6,30.37,WNW,288,9.2,9.2,60,0.00,CLR,,0.00,WeatherDisplay:10.37,2013-02-01 17:56:00,
2013-02-01 12:57:00,20.4,8.7,30.37,West,260,9.2,9.2,60,0.00,CLR,,0.00,WeatherDisplay:10.37,2013-02-01 17:57:00,
2013-02-01 12:58:00,20.6,9.6,30.37,WSW,242,8.1,8.1,62,0.00,CLR,,0.00,WeatherDisplay:10.37,2013-02-01 17:58:00,
2013-02-01 13:00:00,20.8,9.1,30.37,SW,218,10.4,10.4,60,0.00,CLR,,0.00,WeatherDisplay:10.37,2013-02-01 18:00:00,
2013-02-01 13:01:00,20.8,8.7,30.37,SW,224,11.5,11.5,59,0.00,CLR,,0.00,WeatherDisplay:10.37,2013-02-01 18:01:00,
2013-02-01 13:02:00,20.8,8.7,30.37,WNW,289,11.5,11.5,59,0.00,CLR,,0.00,WeatherDisplay:10.37,2013-02-01 18:02:00,
2013-02-01 13:03:00,20.9,9.5,30.37,SW,231,12.7,12.7,61,0.00,CLR,,0.00,WeatherDisplay:10.37,2013-02-01 18:03:00,
2013-02-01 13:05:00,20.9,9.2,30.37,SW,232,12.7,12.7,60,0.00,CLR,,0.00,WeatherDisplay:10.37,2013-02-01 18:05:00,
2013-02-01 13:06:00,20.9,8.8,30.37,West,279,12.7,12.7,59,0.00,CLR,,0.00,WeatherDisplay:10.37,2013-02-01 18:06:00,
2013-02-01 13:08:00,20.8,8.3,30.37,West,273,11.5,11.5,58,0.00,CLR,,0.00,WeatherDisplay:10.37,2013-02-01 18:08:00,
2013-02-01 13:09:00,20.7,8.2,30.37,WSW,254,11.5,11.5,58,0.00,CLR,,0.00,WeatherDisplay:10.37,2013-02-01 18:09:00,
2013-02-01 13:10:00,20.7,8.2,30.37,WSW,255,13.8,13.8,58,0.00,CLR,,0.00,WeatherDisplay:10.37,2013-02-01 18:10:00,
2013-02-01 13:11:00,20.8,8.7,30.37,SW,235,11.5,11.5,59,0.00,CLR,,0.00,WeatherDisplay:10.37,2013-02-01 18:11:00,
2013-02-01 13:13:00,20.9,9.2,30.37,West,264,9.2,9.2,60,0.00,CLR,,0.00,WeatherDisplay:10.37,2013-02-01 18:13:00,
2013-02-01 13:14:00,21.2,10.2,30.37,WSW,245,4.6,4.6,62,0.00,CLR,,0.00,WeatherDisplay:10.37,2013-02-01 18:14:00,
2013-02-01 13:15:00,21.1,9.0,30.37,NW,312,12.7,12.7,59,0.00,CLR,,0.00,WeatherDisplay:10.37,2013-02-01 18:15:00,
2013-02-01 13:17:00,21.0,8.9,30.36,WSW,240,8.1,8.1,59,0.00,CLR,,0.00,WeatherDisplay:10.37,2013-02-01 18:17:00,
2013-02-01 13:18:00,20.9,8.8,30.37,West,266,9.2,9.2,59,0.00,CLR,,0.00,WeatherDisplay:10.37,2013-02-01 18:18:00,
2013-02-01 13:19:00,20.8,9.1,30.37,WSW,257,6.9,6.9,60,0.00,CLR,,0.00,WeatherDisplay:10.37,2013-02-01 18:19:00,
2013-02-01 13:20:00,20.7,8.2,30.37,WSW,254,8.1,8.1,58,0.00,CLR,,0.00,WeatherDisplay:10.37,2013-02-01 18:20:00,
2013-02-01 13:22:00,20.8,9.1,30.37,WNW,285,8.1,8.1,60,0.00,CLR,,0.00,WeatherDisplay:10.37,2013-02-01 18:22:00,
2013-02-01 13:23:00,20.9,9.5,30.37,North,8,11.5,11.5,61,0.00,CLR,,0.00,WeatherDisplay:10.37,2013-02-01 18:23:00,
2013-02-01 13:24:00,21.1,10.1,30.37,WNW,293,10.0,10.0,62,0.00,CLR,,0.00,WeatherDisplay:10.37,2013-02-01 18:24:00,
2013-02-01 13:26:00,21.1,8.6,30.37,WSW,243,10.4,10.4,58,0.00,CLR,,0.00,WeatherDisplay:10.37,2013-02-01 18:26:00,
2013-02-01 13:27:00,21.1,8.6,30.37,SSW,210,6.9,6.9,58,0.00,CLR,,0.00,WeatherDisplay:10.37,2013-02-01 18:27:00,
2013-02-01 13:28:00,21.2,8.7,30.37,West,265,11.5,11.5,58,0.00,CLR,,0.00,WeatherDisplay:10.37,2013-02-01 18:28:00,
2013-02-01 13:30:00,21.2,8.3,30.37,WNW,291,15.0,15.0,57,0.00,CLR,,0.00,WeatherDisplay:10.37,2013-02-01 18:30:00,
2013-02-01 13:31:00,21.5,9.7,30.37,WNW,296,11.5,11.5,60,0.00,CLR,,0.00,WeatherDisplay:10.37,2013-02-01 18:31:00,
2013-02-01 13:33:00,21.6,9.1,30.37,NW,319,11.5,11.5,58,0.00,CLR,,0.00,WeatherDisplay:10.37,2013-02-01 18:33:00,
2013-02-01 13:35:00,21.7,9.9,30.37,WSW,249,6.0,6.0,60,0.00,CLR,,0.00,WeatherDisplay:10.37,2013-02-01 18:35:00,
2013-02-01 13:37:00,22.0,10.2,30.37,SW,232,8.1,8.1,60,0.00,CLR,,0.00,WeatherDisplay:10.37,2013-02-01 18:37:00,
2013-02-01 13:38:00,22.1,9.2,30.37,SSW,210,9.2,9.2,57,0.00,CLR,,0.00,WeatherDisplay:10.37,2013-02-01 18:38:00,
2013-02-01 13:40:00,22.3,10.1,30.37,SW,232,6.9,6.9,59,0.00,CLR,,0.00,WeatherDisplay:10.37,2013-02-01 18:40:00,
2013-02-01 13:42:00,22.3,9.7,30.37,WSW,237,6.9,6.9,58,0.00,CLR,,0.00,WeatherDisplay:10.37,2013-02-01 18:42:00,
2013-02-01 13:43:00,22.4,9.8,30.37,SW,229,4.6,4.6,58,0.00,CLR,,0.00,WeatherDisplay:10.37,2013-02-01 18:43:00,
2013-02-01 13:46:00,22.5,9.9,30.37,SW,217,11.5,11.5,58,0.00,CLR,,0.00,WeatherDisplay:10.37,2013-02-01 18:46:00,
2013-02-01 13:47:00,22.7,10.9,30.37,SW,229,15.0,15.0,60,0.00,CLR,,0.00,WeatherDisplay:10.37,2013-02-01 18:47:00,
2013-02-01 13:49:00,22.8,9.8,30.37,West,274,12.7,12.7,57,0.00,,,0.00,WeatherDisplay:10.37,2013-02-01 18:49:00,
2013-02-01 13:51:00,23.1,10.9,30.37,NW,313,11.5,11.5,59,0.00,,,0.00,WeatherDisplay:10.37,2013-02-01 18:51:00,
2013-02-01 13:52:00,23.1,10.5,30.36,NW,310,13.0,13.0,58,0.00,,,0.00,WeatherDisplay:10.37,2013-02-01 18:52:00,
2013-02-01 13:54:00,23.1,10.5,30.37,WSW,257,11.5,11.5,58,0.00,,,0.00,WeatherDisplay:10.37,2013-02-01 18:54:00,
2013-02-01 13:56:00,23.0,10.8,30.36,West,262,7.0,7.0,59,0.00,,,0.00,WeatherDisplay:10.37,2013-02-01 18:56:00,
2013-02-01 13:57:00,22.9,10.3,30.36,WSW,257,11.5,11.5,58,0.00,,,0.00,WeatherDisplay:10.37,2013-02-01 18:57:00,
2013-02-01 13:59:00,23.0,10.0,30.36,West,281,13.8,13.8,57,0.00,,,0.00,WeatherDisplay:10.37,2013-02-01 18:59:00,
2013-02-01 14:02:00,22.8,9.4,30.36,NW,310,10.0,10.0,56,0.00,,,0.00,WeatherDisplay:10.37,2013-02-01 19:02:00,
2013-02-01 14:04:00,22.9,9.9,30.36,West,279,10.4,10.4,57,0.00,,,0.00,WeatherDisplay:10.37,2013-02-01 19:04:00,
2013-02-01 14:05:00,22.9,9.9,30.36,WSW,254,6.9,6.9,57,0.00,,,0.00,WeatherDisplay:10.37,2013-02-01 19:05:00,
2013-02-01 14:07:00,23.1,10.9,30.36,West,276,15.0,15.0,59,0.00,,,0.00,WeatherDisplay:10.37,2013-02-01 19:07:00,
2013-02-01 14:08:00,23.0,9.2,30.36,WSW,250,15.0,15.0,55,0.00,,,0.00,WeatherDisplay:10.37,2013-02-01 19:08:00,
2013-02-01 14:10:00,23.0,10.0,30.36,West,275,10.4,10.4,57,0.00,,,0.00,WeatherDisplay:10.37,2013-02-01 19:10:00,
2013-02-01 14:12:00,23.2,10.2,30.36,WNW,285,11.5,11.5,57,0.00,,,0.00,WeatherDisplay:10.37,2013-02-01 19:12:00,
2013-02-01 14:13:00,23.3,10.7,30.36,WNW,300,9.2,9.2,58,0.00,,,0.00,WeatherDisplay:10.37,2013-02-01 19:13:00,
2013-02-01 14:15:00,23.3,10.3,30.36,WNW,300,11.5,11.5,57,0.00,,,0.00,WeatherDisplay:10.37,2013-02-01 19:15:00,
2013-02-01 14:17:00,23.1,10.5,30.36,NW,308,9.2,9.2,58,0.00,,,0.00,WeatherDisplay:10.37,2013-02-01 19:17:00,
2013-02-01 14:18:00,23.3,11.4,30.36,SSW,204,10.0,10.0,60,0.00,,,0.00,WeatherDisplay:10.37,2013-02-01 19:18:00,
2013-02-01 14:20:00,23.5,10.9,30.37,WNW,292,9.2,9.2,58,0.00,,,0.00,WeatherDisplay:10.37,2013-02-01 19:20:00,
2013-02-01 14:22:00,23.6,10.6,30.37,WNW,303,6.9,6.9,57,0.00,,,0.00,WeatherDisplay:10.37,2013-02-01 19:22:00,
2013-02-01 14:24:00,23.5,10.1,30.37,NW,309,10.4,10.4,56,0.00,,,0.00,WeatherDisplay:10.37,2013-02-01 19:24:00,
2013-02-01 14:25:00,23.4,10.4,30.37,WNW,302,10.4,10.4,57,0.00,,,0.00,WeatherDisplay:10.37,2013-02-01 19:25:00,
2013-02-01 14:29:00,23.6,10.2,30.37,SW,232,10.4,10.4,56,0.00,,,0.00,WeatherDisplay:10.37,2013-02-01 19:29:00,
2013-02-01 14:31:00,23.6,10.2,30.37,WNW,296,10.4,10.4,56,0.00,,,0.00,WeatherDisplay:10.37,2013-02-01 19:31:00,
2013-02-01 14:34:00,23.4,10.8,30.37,WSW,240,7.0,7.0,58,0.00,,,0.00,WeatherDisplay:10.37,2013-02-01 19:34:00,
2013-02-01 14:35:00,23.4,10.4,30.37,WSW,253,8.1,8.1,57,0.00,,,0.00,WeatherDisplay:10.37,2013-02-01 19:35:00,
2013-02-01 14:36:00,23.4,10.0,30.37,WSW,255,6.9,6.9,56,0.00,,,0.00,WeatherDisplay:10.37,2013-02-01 19:36:00,
2013-02-01 14:39:00,23.9,10.9,30.37,West,260,11.5,11.5,57,0.00,,,0.00,WeatherDisplay:10.37,2013-02-01 19:39:00,
2013-02-01 14:40:00,24.0,11.0,30.37,WNW,302,5.0,5.0,57,0.00,,,0.00,WeatherDisplay:10.37,2013-02-01 19:40:00,
2013-02-01 14:41:00,24.1,10.6,30.37,WSW,245,10.4,10.4,56,0.00,,,0.00,WeatherDisplay:10.37,2013-02-01 19:41:00,
2013-02-01 14:44:00,24.4,10.9,30.37,WNW,302,8.0,8.0,56,0.00,,,0.00,WeatherDisplay:10.37,2013-02-01 19:44:00,
2013-02-01 14:45:00,24.4,10.5,30.37,West,260,9.2,9.2,55,0.00,,,0.00,WeatherDisplay:10.37,2013-02-01 19:45:00,
2013-02-01 14:46:00,24.5,11.0,30.37,WSW,255,10.4,10.4,56,0.00,,,0.00,WeatherDisplay:10.37,2013-02-01 19:46:00,
2013-02-01 14:47:00,24.5,10.2,30.37,WSW,252,9.2,9.2,54,0.00,,,0.00,WeatherDisplay:10.37,2013-02-01 19:47:00,
2013-02-01 14:50:00,25.0,12.3,30.37,WSW,246,9.2,9.2,58,0.00,,,0.00,WeatherDisplay:10.37,2013-02-01 19:50:00,
2013-02-01 14:51:00,25.1,11.2,30.37,WSW,241,10.4,10.4,55,0.00,,,0.00,WeatherDisplay:10.37,2013-02-01 19:51:00,
2013-02-01 14:53:00,24.8,9.6,30.37,WSW,255,11.0,11.0,52,0.00,,,0.00,WeatherDisplay:10.37,2013-02-01 19:53:00,
2013-02-01 14:55:00,24.6,9.9,30.37,SW,225,9.2,9.2,53,0.00,,,0.00,WeatherDisplay:10.37,2013-02-01 19:55:00,
2013-02-01 14:56:00,24.6,9.9,30.37,WNW,295,11.5,11.5,53,0.00,,,0.00,WeatherDisplay:10.37,2013-02-01 19:56:00,
2013-02-01 14:57:00,24.5,9.4,30.36,SW,231,8.1,8.1,52,0.00,,,0.00,WeatherDisplay:10.37,2013-02-01 19:57:00,
2013-02-01 14:58:00,24.4,9.3,30.36,WNW,293,12.7,12.7,52,0.00,,,0.00,WeatherDisplay:10.37,2013-02-01 19:58:00,
2013-02-01 15:00:00,24.1,9.8,30.36,SW,235,13.8,13.8,54,0.00,,,0.00,WeatherDisplay:10.37,2013-02-01 20:00:00,
2013-02-01 15:01:00,24.1,9.8,30.36,WSW,253,10.4,10.4,54,0.00,,,0.00,WeatherDisplay:10.37,2013-02-01 20:01:00,
2013-02-01 15:02:00,24.2,9.9,30.36,WSW,258,8.1,8.1,54,0.00,,,0.00,WeatherDisplay:10.37,2013-02-01 20:02:00,
2013-02-01 15:03:00,24.1,9.0,30.36,NW,314,9.2,9.2,52,0.00,,,0.00,WeatherDisplay:10.37,2013-02-01 20:03:00,
2013-02-01 15:05:00,24.2,10.3,30.36,NNW,333,9.2,9.2,55,0.00,,,0.00,WeatherDisplay:10.37,2013-02-01 20:05:00,
2013-02-01 15:07:00,24.2,9.9,30.36,NW,313,9.2,9.2,54,0.00,,,0.00,WeatherDisplay:10.37,2013-02-01 20:07:00,
2013-02-01 15:08:00,24.4,10.9,30.36,West,262,4.0,4.0,56,0.00,,,0.00,WeatherDisplay:10.37,2013-02-01 20:08:00,
2013-02-01 15:11:00,24.6,9.5,30.36,WSW,245,8.1,8.1,52,0.00,,,0.00,WeatherDisplay:10.37,2013-02-01 20:11:00,
2013-02-01 15:12:00,24.5,9.8,30.36,West,270,6.9,6.9,53,0.00,,,0.00,WeatherDisplay:10.37,2013-02-01 20:12:00,
2013-02-01 15:13:00,24.5,9.8,30.36,WSW,237,6.9,6.9,53,0.00,,,0.00,WeatherDisplay:10.37,2013-02-01 20:13:00,
2013-02-01 15:16:00,24.4,9.7,30.36,WNW,293,12.7,12.7,53,0.00,,,0.00,WeatherDisplay:10.37,2013-02-01 20:16:00,
2013-02-01 15:17:00,24.4,9.7,30.36,SW,236,10.4,10.4,53,0.00,,,0.00,WeatherDisplay:10.37,2013-02-01 20:17:00,
2013-02-01 15:18:00,24.4,9.7,30.36,West,265,11.5,11.5,53,0.00,,,0.00,WeatherDisplay:10.37,2013-02-01 20:18:00,
2013-02-01 15:21:00,24.5,9.8,30.36,SW,232,12.7,12.7,53,0.00,,,0.00,WeatherDisplay:10.37,2013-02-01 20:21:00,
2013-02-01 15:22:00,24.5,10.2,30.36,West,273,12.7,12.7,54,0.00,,,0.00,WeatherDisplay:10.37,2013-02-01 20:22:00,
2013-02-01 15:23:00,24.5,10.2,30.36,WSW,257,13.8,13.8,54,0.00,,,0.00,WeatherDisplay:10.37,2013-02-01 20:23:00,
2013-02-01 15:24:00,24.6,10.7,30.36,WSW,245,11.5,11.5,55,0.00,,,0.00,WeatherDisplay:10.37,2013-02-01 20:24:00,
2013-02-01 15:26:00,24.7,9.5,30.36,SW,225,11.5,11.5,52,0.00,,,0.00,WeatherDisplay:10.37,2013-02-01 20:26:00,
2013-02-01 15:27:00,24.7,9.5,30.36,West,260,10.4,10.4,52,0.00,,,0.00,WeatherDisplay:10.37,2013-02-01 20:27:00,
2013-02-01 15:28:00,24.7,9.5,30.36,WSW,240,9.2,9.2,52,0.00,,,0.00,WeatherDisplay:10.37,2013-02-01 20:28:00,
2013-02-01 15:29:00,24.6,10.3,30.36,WNW,286,8.1,8.1,54,0.00,,,0.00,WeatherDisplay:10.37,2013-02-01 20:29:00,
2013-02-01 15:31:00,24.4,9.3,30.36,ENE,69,9.2,9.2,52,0.00,,,0.00,WeatherDisplay:10.37,2013-02-01 20:31:00,
2013-02-01 15:33:00,24.4,9.3,30.36,SW,235,10.4,10.4,52,0.00,,,0.00,WeatherDisplay:10.37,2013-02-01 20:33:00,
2013-02-01 15:34:00,24.4,9.7,30.36,West,281,8.1,8.1,53,0.00,,,0.00,WeatherDisplay:10.37,2013-02-01 20:34:00,
2013-02-01 15:36:00,24.5,10.2,30.36,WSW,254,11.5,11.5,54,0.00,,,0.00,WeatherDisplay:10.37,2013-02-01 20:36:00,
2013-02-01 15:38:00,24.6,10.7,30.36,WSW,243,6.9,6.9,55,0.00,,,0.00,WeatherDisplay:10.37,2013-02-01 20:38:00,
2013-02-01 15:39:00,24.8,11.7,30.36,WSW,252,7.0,7.0,57,0.00,,,0.00,WeatherDisplay:10.37,2013-02-01 20:39:00,
2013-02-01 15:41:00,25.1,10.3,30.36,SW,231,6.9,6.9,53,0.00,,,0.00,WeatherDisplay:10.37,2013-02-01 20:41:00,
2013-02-01 15:43:00,25.1,10.3,30.36,WSW,252,9.2,9.2,53,0.00,,,0.00,WeatherDisplay:10.37,2013-02-01 20:43:00,
2013-02-01 15:44:00,25.1,10.3,30.36,West,265,3.5,3.5,53,0.00,,,0.00,WeatherDisplay:10.37,2013-02-01 20:44:00,
2013-02-01 15:47:00,25.3,10.1,30.36,West,279,8.1,8.1,52,0.00,,,0.00,WeatherDisplay:10.37,2013-02-01 20:47:00,
2013-02-01 15:48:00,25.3,11.0,30.36,NW,308,9.2,9.2,54,0.00,,,0.00,WeatherDisplay:10.37,2013-02-01 20:48:00,
2013-02-01 15:49:00,25.3,11.0,30.36,NW,323,11.5,11.5,54,0.00,,,0.00,WeatherDisplay:10.37,2013-02-01 20:49:00,
2013-02-01 15:53:00,24.7,9.5,30.36,WSW,250,11.5,11.5,52,0.00,,,0.00,WeatherDisplay:10.37,2013-02-01 20:53:00,
2013-02-01 15:54:00,24.6,9.9,30.36,SW,235,9.2,9.2,53,0.00,,,0.00,WeatherDisplay:10.37,2013-02-01 20:54:00,
2013-02-01 15:58:00,24.7,9.5,30.36,WSW,237,9.2,9.2,52,0.00,,,0.00,WeatherDisplay:10.37,2013-02-01 20:58:00,
2013-02-01 15:59:00,24.7,9.5,30.36,SW,234,9.2,9.2,52,0.00,,,0.00,WeatherDisplay:10.37,2013-02-01 20:59:00,
2013-02-01 16:00:00,24.8,10.1,30.36,WNW,290,4.6,4.6,53,0.00,,,0.00,WeatherDisplay:10.37,2013-02-01 21:00:00,
2013-02-01 16:01:00,24.9,11.0,30.36,WNW,298,5.0,5.0,55,0.00,,,0.00,WeatherDisplay:10.37,2013-02-01 21:01:00,
2013-02-01 16:03:00,25.3,10.5,30.37,West,276,9.2,9.2,53,0.00,,,0.00,WeatherDisplay:10.37,2013-02-01 21:03:00,
2013-02-01 16:04:00,25.3,10.5,30.37,WSW,257,10.4,10.4,53,0.00,,,0.00,WeatherDisplay:10.37,2013-02-01 21:04:00,
2013-02-01 16:05:00,25.1,9.5,30.36,SW,235,11.5,11.5,51,0.00,,,0.00,WeatherDisplay:10.37,2013-02-01 21:05:00,
2013-02-01 16:06:00,25.1,9.5,30.36,WSW,245,10.4,10.4,51,0.00,,,0.00,WeatherDisplay:10.37,2013-02-01 21:06:00,
2013-02-01 16:08:00,25.0,9.8,30.36,West,275,14.0,14.0,52,0.00,,,0.00,WeatherDisplay:10.37,2013-02-01 21:08:00,
2013-02-01 16:09:00,24.9,9.3,30.37,WNW,302,13.8,13.8,51,0.00,,,0.00,WeatherDisplay:10.37,2013-02-01 21:09:00,
2013-02-01 16:10:00,24.8,9.6,30.36,NW,306,15.0,15.0,52,0.00,,,0.00,WeatherDisplay:10.37,2013-02-01 21:10:00,
2013-02-01 16:11:00,24.8,9.6,30.37,NW,310,11.5,11.5,52,0.00,,,0.00,WeatherDisplay:10.37,2013-02-01 21:11:00,
2013-02-01 16:14:00,24.8,10.1,30.36,SW,235,6.9,6.9,53,0.00,,,0.00,WeatherDisplay:10.37,2013-02-01 21:14:00,
2013-02-01 16:15:00,24.8,9.6,30.36,WSW,241,8.1,8.1,52,0.00,,,0.00,WeatherDisplay:10.37,2013-02-01 21:15:00,
2013-02-01 16:16:00,24.9,9.7,30.36,WSW,245,8.1,8.1,52,0.00,,,0.00,WeatherDisplay:10.37,2013-02-01 21:16:00,
2013-02-01 16:19:00,25.2,10.9,30.36,SW,235,3.5,3.5,54,0.00,,,0.00,WeatherDisplay:10.37,2013-02-01 21:19:00,
2013-02-01 16:20:00,25.4,10.6,30.36,NW,307,8.0,8.0,53,0.00,,,0.00,WeatherDisplay:10.37,2013-02-01 21:20:00,
2013-02-01 16:21:00,25.4,10.6,30.36,West,272,9.2,9.2,53,0.00,,,0.00,WeatherDisplay:10.37,2013-02-01 21:21:00,
2013-02-01 16:24:00,25.4,10.6,30.36,West,260,4.6,4.6,53,0.00,,,0.00,WeatherDisplay:10.37,2013-02-01 21:24:00,
2013-02-01 16:26:00,25.4,10.2,30.37,WSW,245,6.9,6.9,52,0.00,,,0.00,WeatherDisplay:10.37,2013-02-01 21:26:00,
2013-02-01 16:27:00,25.4,10.6,30.37,SW,235,6.9,6.9,53,0.00,,,0.00,WeatherDisplay:10.37,2013-02-01 21:27:00,
2013-02-01 16:29:00,25.4,10.6,30.37,NW,305,4.0,4.0,53,0.00,,,0.00,WeatherDisplay:10.37,2013-02-01 21:29:00,
2013-02-01 16:31:00,25.4,10.6,30.37,SW,215,6.9,6.9,53,0.00,,,0.00,WeatherDisplay:10.37,2013-02-01 21:31:00,
2013-02-01 16:32:00,25.4,10.6,30.37,NW,321,7.0,7.0,53,0.00,,,0.00,WeatherDisplay:10.37,2013-02-01 21:32:00,
2013-02-01 16:34:00,25.3,10.1,30.37,WNW,302,6.9,6.9,52,0.00,,,0.00,WeatherDisplay:10.37,2013-02-01 21:34:00,
2013-02-01 16:37:00,25.3,10.5,30.37,WSW,250,4.6,4.6,53,0.00,,,0.00,WeatherDisplay:10.37,2013-02-01 21:37:00,
2013-02-01 16:40:00,25.2,10.0,30.37,West,264,6.0,10.0,52,0.00,,,0.00,WeatherDisplay:10.37,2013-02-01 21:40:00,
2013-02-01 16:42:00,25.1,9.9,30.36,West,263,9.2,9.2,52,0.00,,,0.00,WeatherDisplay:10.37,2013-02-01 21:42:00,
2013-02-01 16:45:00,24.9,9.8,30.36,WSW,251,7.0,12.0,52,0.00,,,0.00,WeatherDisplay:10.37,2013-02-01 21:45:00,
2013-02-01 16:47:00,24.7,9.1,30.36,WSW,254,6.9,6.9,51,0.00,,,0.00,WeatherDisplay:10.37,2013-02-01 21:47:00,
2013-02-01 16:50:00,24.7,9.5,30.37,WSW,247,5.0,9.0,52,0.00,,,0.00,WeatherDisplay:10.37,2013-02-01 21:50:00,
2013-02-01 16:52:00,24.6,9.0,30.37,SW,236,10.4,10.4,51,0.00,,,0.00,WeatherDisplay:10.37,2013-02-01 21:52:00,
2013-02-01 16:53:00,24.5,9.4,30.37,WSW,245,9.2,9.2,52,0.00,,,0.00,WeatherDisplay:10.37,2013-02-01 21:53:00,
2013-02-01 16:55:00,24.4,8.8,30.37,WSW,251,7.0,10.0,51,0.00,,,0.00,WeatherDisplay:10.37,2013-02-01 21:55:00,
2013-02-01 16:57:00,24.3,9.2,30.37,WSW,253,5.0,5.0,52,0.00,,,0.00,WeatherDisplay:10.37,2013-02-01 21:57:00,
2013-02-01 16:58:00,24.3,9.6,30.37,West,275,4.6,4.6,53,0.00,,,0.00,WeatherDisplay:10.37,2013-02-01 21:58:00,
2013-02-01 17:00:00,24.3,9.6,30.37,WSW,241,5.8,5.8,53,0.00,,,0.00,WeatherDisplay:10.37,2013-02-01 22:00:00,
2013-02-01 17:02:00,24.4,9.7,30.37,WSW,238,5.8,5.8,53,0.00,,,0.00,WeatherDisplay:10.37,2013-02-01 22:02:00,
2013-02-01 17:03:00,24.4,9.7,30.37,WSW,257,8.1,8.1,53,0.00,,,0.00,WeatherDisplay:10.37,2013-02-01 22:03:00,
2013-02-01 17:05:00,24.4,9.7,30.37,WSW,250,11.5,11.5,53,0.00,,,0.00,WeatherDisplay:10.37,2013-02-01 22:05:00,
2013-02-01 17:08:00,24.3,9.6,30.37,WNW,293,8.1,8.1,53,0.00,,,0.00,WeatherDisplay:10.37,2013-02-01 22:08:00,
2013-02-01 17:09:00,24.3,10.0,30.37,WSW,245,5.8,5.8,54,0.00,,,0.00,WeatherDisplay:10.37,2013-02-01 22:09:00,
2013-02-01 17:10:00,24.3,10.0,30.37,WNW,291,5.8,5.8,54,0.00,,,0.00,WeatherDisplay:10.37,2013-02-01 22:10:00,
2013-02-01 17:13:00,24.3,10.4,30.36,SW,231,6.9,6.9,55,0.00,,,0.00,WeatherDisplay:10.37,2013-02-01 22:13:00,
2013-02-01 17:14:00,24.3,9.6,30.36,West,260,11.5,11.5,53,0.00,,,0.00,WeatherDisplay:10.37,2013-02-01 22:14:00,
2013-02-01 17:16:00,24.3,10.0,30.37,SW,225,8.0,8.0,54,0.00,,,0.00,WeatherDisplay:10.37,2013-02-01 22:16:00,
2013-02-01 17:19:00,24.2,9.9,30.37,WNW,286,4.6,4.6,54,0.00,,,0.00,WeatherDisplay:10.37,2013-02-01 22:19:00,
2013-02-01 17:21:00,24.3,10.4,30.37,WSW,250,4.6,4.6,55,0.00,,,0.00,WeatherDisplay:10.37,2013-02-01 22:21:00,
2013-02-01 17:24:00,24.3,10.0,30.37,SW,236,6.9,6.9,54,0.00,,,0.00,WeatherDisplay:10.37,2013-02-01 22:24:00,
2013-02-01 17:26:00,24.2,9.5,30.37,West,279,11.5,11.5,53,0.00,,,0.00,WeatherDisplay:10.37,2013-02-01 22:26:00,
2013-02-01 17:29:00,24.0,9.3,30.37,West,266,9.2,9.2,53,0.00,,,0.00,WeatherDisplay:10.37,2013-02-01 22:29:00,
2013-02-01 17:31:00,23.9,10.1,30.38,NW,305,5.8,5.8,55,0.00,,,0.00,WeatherDisplay:10.37,2013-02-01 22:31:00,
2013-02-01 17:34:00,23.8,10.4,30.38,WSW,255,4.0,4.0,56,0.00,,,0.00,WeatherDisplay:10.37,2013-02-01 22:34:00,
2013-02-01 17:37:00,23.7,9.9,30.38,WSW,258,9.2,9.2,55,0.00,,,0.00,WeatherDisplay:10.37,2013-02-01 22:37:00,
2013-02-01 17:39:00,23.5,9.7,30.38,WNW,302,4.6,4.6,55,0.00,,,0.00,WeatherDisplay:10.37,2013-02-01 22:39:00,
2013-02-01 17:42:00,23.3,9.1,30.38,WSW,250,6.9,6.9,54,0.00,,,0.00,WeatherDisplay:10.37,2013-02-01 22:42:00,
2013-02-01 17:45:00,23.1,8.9,30.37,West,271,6.9,6.9,54,0.00,,,0.00,WeatherDisplay:10.37,2013-02-01 22:45:00,
2013-02-01 17:47:00,22.7,8.9,30.37,WSW,258,5.8,5.8,55,0.00,,,0.00,WeatherDisplay:10.37,2013-02-01 22:47:00,
2013-02-01 17:50:00,22.5,9.1,30.38,NW,307,6.0,6.0,56,0.00,,,0.00,WeatherDisplay:10.37,2013-02-01 22:50:00,
2013-02-01 17:51:00,22.3,8.6,30.38,WNW,298,6.9,6.9,55,0.00,,,0.00,WeatherDisplay:10.37,2013-02-01 22:51:00,
2013-02-01 17:52:00,22.2,9.3,30.37,WSW,251,3.5,3.5,57,0.00,,,0.00,WeatherDisplay:10.37,2013-02-01 22:52:00,
2013-02-01 17:55:00,21.9,9.0,30.37,West,267,3.5,3.5,57,0.00,,,0.00,WeatherDisplay:10.37,2013-02-01 22:55:00,
2013-02-01 17:56:00,21.8,9.3,30.37,WSW,243,6.9,6.9,58,0.00,,,0.00,WeatherDisplay:10.37,2013-02-01 22:56:00,
2013-02-01 17:57:00,21.7,9.2,30.37,West,266,3.5,3.5,58,0.00,,,0.00,WeatherDisplay:10.37,2013-02-01 22:57:00,
2013-02-01 18:00:00,21.5,9.0,30.37,WSW,243,5.8,5.8,58,0.00,,,0.00,WeatherDisplay:10.37,2013-02-01 23:00:00,
2013-02-01 18:01:00,21.4,8.9,30.37,WSW,243,6.0,6.0,58,0.00,,,0.00,WeatherDisplay:10.37,2013-02-01 23:01:00,
2013-02-01 18:03:00,21.3,8.8,30.37,WSW,254,4.6,4.6,58,0.00,,,0.00,WeatherDisplay:10.37,2013-02-01 23:03:00,
2013-02-01 18:05:00,21.2,8.7,30.37,WSW,257,3.5,3.5,58,0.00,,,0.00,WeatherDisplay:10.37,2013-02-01 23:05:00,
2013-02-01 18:06:00,21.2,9.1,30.37,WNW,282,3.5,3.5,59,0.00,,,0.00,WeatherDisplay:10.37,2013-02-01 23:06:00,
2013-02-01 18:08:00,21.1,9.4,30.37,WSW,250,3.5,3.5,60,0.00,,,0.00,WeatherDisplay:10.37,2013-02-01 23:08:00,
2013-02-01 18:10:00,20.9,9.2,30.37,WSW,246,6.0,6.0,60,0.00,,,0.00,WeatherDisplay:10.37,2013-02-01 23:10:00,
2013-02-01 18:11:00,20.9,9.2,30.37,West,266,5.8,5.8,60,0.00,,,0.00,WeatherDisplay:10.37,2013-02-01 23:11:00,
2013-02-01 18:12:00,20.9,9.2,30.37,WSW,250,5.8,5.8,60,0.00,,,0.00,WeatherDisplay:10.37,2013-02-01 23:12:00,
2013-02-01 18:13:00,20.8,9.5,30.37,WNW,293,2.3,2.3,61,0.00,,,0.00,WeatherDisplay:10.37,2013-02-01 23:13:00,
2013-02-01 18:15:00,20.7,9.7,30.37,West,260,2.3,2.3,62,0.00,,,0.00,WeatherDisplay:10.37,2013-02-01 23:15:00,
2013-02-01 18:16:00,20.6,9.6,30.37,WNW,298,4.0,4.0,62,0.00,,,0.00,WeatherDisplay:10.37,2013-02-01 23:16:00,
2013-02-01 18:17:00,20.6,9.6,30.37,WNW,284,3.5,3.5,62,0.00,,,0.00,WeatherDisplay:10.37,2013-02-01 23:17:00,
2013-02-01 18:18:00,20.5,9.5,30.37,West,276,3.5,3.5,62,0.00,,,0.00,WeatherDisplay:10.37,2013-02-01 23:18:00,
2013-02-01 18:20:00,20.4,9.4,30.37,West,264,2.3,2.4,62,0.00,,,0.00,WeatherDisplay:10.37,2013-02-01 23:20:00,
2013-02-01 18:22:00,20.4,9.4,30.37,WSW,258,3.5,3.5,62,0.00,,,0.00,WeatherDisplay:10.37,2013-02-01 23:22:00,
2013-02-01 18:23:00,20.3,9.3,30.37,WSW,246,4.6,4.6,62,0.00,,,0.00,WeatherDisplay:10.37,2013-02-01 23:23:00,
2013-02-01 18:26:00,20.2,9.2,30.37,WSW,253,3.5,3.5,62,0.00,,,0.00,WeatherDisplay:10.37,2013-02-01 23:26:00,
2013-02-01 18:27:00,20.2,9.2,30.37,WSW,256,2.3,2.3,62,0.00,,,0.00,WeatherDisplay:10.37,2013-02-01 23:27:00,
2013-02-01 18:28:00,20.2,9.2,30.38,WSW,256,3.5,3.5,62,0.00,,,0.00,WeatherDisplay:10.37,2013-02-01 23:28:00,
2013-02-01 18:31:00,20.1,9.2,30.38,WNW,286,3.5,3.5,62,0.00,,,0.00,WeatherDisplay:10.37,2013-02-01 23:31:00,
2013-02-01 18:32:00,20.1,9.5,30.38,WSW,248,2.3,2.3,63,0.00,,,0.00,WeatherDisplay:10.37,2013-02-01 23:32:00,
2013-02-01 18:34:00,20.0,9.4,30.38,WSW,251,3.5,3.5,63,0.00,,,0.00,WeatherDisplay:10.37,2013-02-01 23:34:00,
2013-02-01 18:36:00,20.0,9.4,30.38,WSW,253,4.0,4.0,63,0.00,,,0.00,WeatherDisplay:10.37,2013-02-01 23:36:00,
2013-02-01 18:37:00,19.9,9.0,30.38,WSW,241,3.5,3.5,62,0.00,,,0.00,WeatherDisplay:10.37,2013-02-01 23:37:00,
2013-02-01 18:39:00,19.9,9.0,30.38,WSW,251,3.5,3.5,62,0.00,,,0.00,WeatherDisplay:10.37,2013-02-01 23:39:00,
2013-02-01 18:41:00,19.9,9.0,30.38,WSW,255,3.5,3.5,62,0.00,,,0.00,WeatherDisplay:10.37,2013-02-01 23:41:00,
2013-02-01 18:42:00,19.8,9.6,30.38,WSW,250,1.1,1.1,64,0.00,,,0.00,WeatherDisplay:10.37,2013-02-01 23:42:00,
2013-02-01 18:43:00,19.8,9.6,30.38,WSW,250,1.1,1.1,64,0.00,,,0.00,WeatherDisplay:10.37,2013-02-01 23:43:00,
2013-02-01 18:44:00,19.8,9.6,30.38,West,269,1.1,1.1,64,0.00,,,0.00,WeatherDisplay:10.37,2013-02-01 23:44:00,
2013-02-01 18:46:00,19.7,9.5,30.38,West,267,1.1,1.1,64,0.00,,,0.00,WeatherDisplay:10.37,2013-02-01 23:46:00,
2013-02-01 18:48:00,19.6,9.7,30.38,West,272,1.1,1.1,65,0.00,,,0.00,WeatherDisplay:10.37,2013-02-01 23:48:00,
2013-02-01 18:49:00,19.6,9.7,30.38,WSW,250,1.1,1.1,65,0.00,,,0.00,WeatherDisplay:10.37,2013-02-01 23:49:00,
2013-02-01 18:51:00,19.5,9.6,30.39,WSW,256,3.5,3.5,65,0.00,,,0.00,WeatherDisplay:10.37,2013-02-01 23:51:00,
2013-02-01 18:53:00,19.4,9.5,30.39,WSW,248,2.3,2.3,65,0.00,,,0.00,WeatherDisplay:10.37,2013-02-01 23:53:00,
2013-02-01 18:54:00,19.4,9.9,30.39,WSW,251,1.1,1.1,66,0.00,,,0.00,WeatherDisplay:10.37,2013-02-01 23:54:00,
2013-02-01 18:56:00,19.3,9.8,30.39,WNW,295,3.5,0.0,66,0.00,,,0.00,WeatherDisplay:10.37,2013-02-01 23:56:00,
2013-02-01 18:58:00,19.3,9.8,30.39,WNW,286,1.1,1.1,66,0.00,,,0.00,WeatherDisplay:10.37,2013-02-01 23:58:00,
2013-02-01 18:59:00,19.2,9.7,30.39,West,260,3.5,3.5,66,0.00,,,0.00,WeatherDisplay:10.37,2013-02-01 23:59:00,
2013-02-01 19:01:00,19.1,9.9,30.39,WSW,248,1.1,1.1,67,0.00,,,0.00,WeatherDisplay:10.37,2013-02-02 00:01:00,
2013-02-01 19:03:00,19.1,9.9,30.39,WNW,292,1.1,1.1,67,0.00,,,0.00,WeatherDisplay:10.37,2013-02-02 00:03:00,
2013-02-01 19:04:00,19.0,9.8,30.39,WNW,284,1.1,1.1,67,0.00,,,0.00,WeatherDisplay:10.37,2013-02-02 00:04:00,
2013-02-01 19:05:00,19.0,10.2,30.39,West,273,1.1,1.1,68,0.00,,,0.00,WeatherDisplay:10.37,2013-02-02 00:05:00,
2013-02-01 19:06:00,18.9,10.1,30.39,WSW,257,2.3,2.3,68,0.00,,,0.00,WeatherDisplay:10.37,2013-02-02 00:06:00,
2013-02-01 19:08:00,18.9,10.1,30.39,WSW,258,2.3,2.3,68,0.00,,,0.00,WeatherDisplay:10.37,2013-02-02 00:08:00,
2013-02-01 19:09:00,18.8,10.0,30.39,WSW,257,1.1,1.1,68,0.00,,,0.00,WeatherDisplay:10.37,2013-02-02 00:09:00,
2013-02-01 19:10:00,18.8,10.0,30.39,WSW,257,1.1,0.0,68,0.00,,,0.00,WeatherDisplay:10.37,2013-02-02 00:10:00,
2013-02-01 19:12:00,18.7,10.2,30.39,West,268,1.1,1.1,69,0.00,,,0.00,WeatherDisplay:10.37,2013-02-02 00:12:00,
2013-02-01 19:14:00,18.6,10.1,30.40,WSW,258,1.1,1.3,69,0.00,,,0.00,WeatherDisplay:10.37,2013-02-02 00:14:00,
2013-02-01 19:15:00,18.6,10.1,30.40,WNW,300,2.3,2.3,69,0.00,,,0.00,WeatherDisplay:10.37,2013-02-02 00:15:00,
2013-02-01 19:17:00,18.6,10.1,30.40,WSW,255,1.1,1.1,69,0.00,,,0.00,WeatherDisplay:10.37,2013-02-02 00:17:00,
2013-02-01 19:19:00,18.6,9.8,30.40,WSW,253,3.5,3.5,68,0.00,,,0.00,WeatherDisplay:10.37,2013-02-02 00:19:00,
2013-02-01 19:20:00,18.6,9.8,30.40,WNW,286,3.5,3.5,68,0.00,,,0.00,WeatherDisplay:10.37,2013-02-02 00:20:00,
2013-02-01 19:22:00,18.6,9.8,30.40,WSW,258,3.5,3.5,68,0.00,,,0.00,WeatherDisplay:10.37,2013-02-02 00:22:00,
2013-02-01 19:24:00,18.6,9.8,30.41,WSW,251,3.5,3.5,68,0.00,,,0.00,WeatherDisplay:10.37,2013-02-02 00:24:00,
2013-02-01 19:25:00,18.6,9.8,30.40,WSW,245,2.3,2.3,68,0.00,,,0.00,WeatherDisplay:10.37,2013-02-02 00:25:00,
2013-02-01 19:26:00,18.6,9.8,30.41,WNW,287,2.0,2.0,68,0.00,,,0.00,WeatherDisplay:10.37,2013-02-02 00:26:00,
2013-02-01 19:27:00,18.5,9.7,30.41,West,264,2.3,2.3,68,0.00,,,0.00,WeatherDisplay:10.37,2013-02-02 00:27:00,
2013-02-01 19:29:00,18.5,10.0,30.41,West,269,2.3,2.3,69,0.00,,,0.00,WeatherDisplay:10.37,2013-02-02 00:29:00,
2013-02-01 19:30:00,18.5,10.0,30.41,West,264,1.1,1.1,69,0.00,,,0.00,WeatherDisplay:10.37,2013-02-02 00:30:00,
2013-02-01 19:31:00,18.5,10.0,30.41,West,264,1.1,1.1,69,0.00,,,0.00,WeatherDisplay:10.37,2013-02-02 00:31:00,
2013-02-01 19:33:00,18.4,9.9,30.41,WSW,256,2.3,2.3,69,0.00,,,0.00,WeatherDisplay:10.37,2013-02-02 00:33:00,
2013-02-01 19:34:00,18.4,9.9,30.41,West,264,2.3,2.3,69,0.00,,,0.00,WeatherDisplay:10.37,2013-02-02 00:34:00,
2013-02-01 19:36:00,18.3,9.8,30.41,WSW,256,3.5,3.5,69,0.00,,,0.00,WeatherDisplay:10.37,2013-02-02 00:36:00,
2013-02-01 19:38:00,18.3,9.8,30.42,WSW,256,2.3,2.3,69,0.00,,,0.00,WeatherDisplay:10.37,2013-02-02 00:38:00,
2013-02-01 19:39:00,18.3,9.8,30.42,WNW,293,2.3,0.0,69,0.00,,,0.00,WeatherDisplay:10.37,2013-02-02 00:39:00,
2013-02-01 19:41:00,18.2,9.7,30.42,WNW,292,0.0,0.0,69,0.00,,,0.00,WeatherDisplay:10.37,2013-02-02 00:41:00,
2013-02-01 19:43:00,18.2,10.4,30.42,WNW,292,1.1,0.0,71,0.00,,,0.00,WeatherDisplay:10.37,2013-02-02 00:43:00,
2013-02-01 19:45:00,18.1,10.3,30.42,WNW,292,0.0,0.0,71,0.00,,,0.00,WeatherDisplay:10.37,2013-02-02 00:45:00,
2013-02-01 19:46:00,18.0,10.2,30.42,WNW,282,1.1,1.1,71,0.00,,,0.00,WeatherDisplay:10.37,2013-02-02 00:46:00,
2013-02-01 19:47:00,18.0,10.2,30.42,WNW,282,1.1,1.1,71,0.00,,,0.00,WeatherDisplay:10.37,2013-02-02 00:47:00,
2013-02-01 19:48:00,17.9,10.1,30.42,WNW,282,0.0,0.0,71,0.00,,,0.00,WeatherDisplay:10.37,2013-02-02 00:48:00,
2013-02-01 19:51:00,17.9,10.1,30.42,West,261,1.1,1.1,71,0.00,,,0.00,WeatherDisplay:10.37,2013-02-02 00:51:00,
2013-02-01 19:52:00,17.8,10.0,30.42,West,261,1.1,1.1,71,0.00,,,0.00,WeatherDisplay:10.37,2013-02-02 00:52:00,
2013-02-01 19:53:00,17.8,9.7,30.42,West,260,1.1,1.1,70,0.00,,,0.00,WeatherDisplay:10.37,2013-02-02 00:53:00,
2013-02-01 19:56:00,17.7,9.9,30.42,West,261,1.1,0.0,71,0.00,,,0.00,WeatherDisplay:10.37,2013-02-02 00:56:00,
2013-02-01 19:57:00,17.7,9.9,30.42,West,261,1.1,1.1,71,0.00,,,0.00,WeatherDisplay:10.37,2013-02-02 00:57:00,
2013-02-01 19:58:00,17.7,9.9,30.42,West,262,1.1,1.1,71,0.00,,,0.00,WeatherDisplay:10.37,2013-02-02 00:58:00,
2013-02-01 20:01:00,17.7,10.2,30.42,West,261,1.1,1.1,72,0.00,,,0.00,WeatherDisplay:10.37,2013-02-02 01:01:00,
2013-02-01 20:02:00,17.7,10.2,30.42,West,261,1.1,1.1,72,0.00,,,0.00,WeatherDisplay:10.37,2013-02-02 01:02:00,
2013-02-01 20:04:00,17.6,10.1,30.42,West,261,1.1,1.1,72,0.00,CLR,,0.00,WeatherDisplay:10.37,2013-02-02 01:04:00,
2013-02-01 20:06:00,17.5,10.0,30.42,West,261,0.0,0.1,72,0.00,CLR,,0.00,WeatherDisplay:10.37,2013-02-02 01:06:00,
2013-02-01 20:07:00,17.5,10.0,30.42,West,261,1.1,1.1,72,0.00,CLR,,0.00,WeatherDisplay:10.37,2013-02-02 01:07:00,
2013-02-01 20:09:00,17.5,9.7,30.42,West,262,1.1,1.1,71,0.00,CLR,,0.00,WeatherDisplay:10.37,2013-02-02 01:09:00,
2013-02-01 20:11:00,17.4,9.6,30.43,West,261,1.1,0.0,71,0.00,CLR,,0.00,WeatherDisplay:10.37,2013-02-02 01:11:00,
2013-02-01 20:12:00,17.4,9.6,30.43,West,261,1.1,1.1,71,0.00,CLR,,0.00,WeatherDisplay:10.37,2013-02-02 01:12:00,
2013-02-01 20:13:00,17.4,9.6,30.43,West,261,1.1,1.1,71,0.00,CLR,,0.00,WeatherDisplay:10.37,2013-02-02 01:13:00,
2013-02-01 20:15:00,17.3,9.5,30.43,West,261,1.1,1.1,71,0.00,CLR,,0.00,WeatherDisplay:10.37,2013-02-02 01:15:00,
2013-02-01 20:16:00,17.3,9.5,30.42,West,261,1.1,0.0,71,0.00,CLR,,0.00,WeatherDisplay:10.37,2013-02-02 01:16:00,
2013-02-01 20:17:00,17.3,9.5,30.43,West,261,1.1,1.1,71,0.00,CLR,,0.00,WeatherDisplay:10.37,2013-02-02 01:17:00,
2013-02-01 20:18:00,17.3,9.5,30.43,West,262,1.1,0.0,71,0.00,CLR,,0.00,WeatherDisplay:10.37,2013-02-02 01:18:00,
2013-02-01 20:20:00,17.3,9.8,30.43,West,262,0.0,0.0,72,0.00,CLR,,0.00,WeatherDisplay:10.37,2013-02-02 01:20:00,
2013-02-01 20:22:00,17.2,10.0,30.43,West,261,1.0,1.0,73,0.00,CLR,,0.00,WeatherDisplay:10.37,2013-02-02 01:22:00,
2013-02-01 20:23:00,17.2,9.7,30.43,West,260,1.1,1.1,72,0.00,CLR,,0.00,WeatherDisplay:10.37,2013-02-02 01:23:00,
2013-02-01 20:25:00,17.2,9.7,30.43,WNW,297,1.1,1.3,72,0.00,CLR,,0.00,WeatherDisplay:10.37,2013-02-02 01:25:00,
2013-02-01 20:27:00,17.3,9.8,30.42,WNW,295,2.3,2.3,72,0.00,CLR,,0.00,WeatherDisplay:10.37,2013-02-02 01:27:00,
2013-02-01 20:28:00,17.2,10.0,30.43,West,275,0.0,0.1,73,0.00,CLR,,0.00,WeatherDisplay:10.37,2013-02-02 01:28:00,
2013-02-01 20:31:00,17.2,10.3,30.42,West,272,1.1,1.1,74,0.00,CLR,,0.00,WeatherDisplay:10.37,2013-02-02 01:31:00,
2013-02-01 20:32:00,17.2,10.6,30.42,West,272,1.1,1.1,75,0.00,CLR,,0.00,WeatherDisplay:10.37,2013-02-02 01:32:00,
2013-02-01 20:33:00,17.1,10.5,30.42,West,262,1.1,1.1,75,0.00,CLR,,0.00,WeatherDisplay:10.37,2013-02-02 01:33:00,
2013-02-01 20:36:00,17.0,10.4,30.43,West,269,1.1,1.1,75,0.00,CLR,,0.00,WeatherDisplay:10.37,2013-02-02 01:36:00,
2013-02-01 20:37:00,17.0,10.4,30.43,West,269,1.1,0.0,75,0.00,CLR,,0.00,WeatherDisplay:10.37,2013-02-02 01:37:00,
2013-02-01 20:38:00,16.9,10.3,30.43,WNW,282,1.1,1.1,75,0.00,CLR,,0.00,WeatherDisplay:10.37,2013-02-02 01:38:00,
2013-02-01 20:39:00,16.9,10.3,30.43,WNW,282,1.1,1.1,75,0.00,CLR,,0.00,WeatherDisplay:10.37,2013-02-02 01:39:00,
2013-02-01 20:41:00,16.8,10.2,30.42,WNW,282,1.1,0.0,75,0.00,CLR,,0.00,WeatherDisplay:10.37,2013-02-02 01:41:00,
2013-02-01 20:43:00,16.8,10.2,30.42,WNW,282,1.1,1.1,75,0.00,CLR,,0.00,WeatherDisplay:10.37,2013-02-02 01:43:00,
2013-02-01 20:44:00,16.7,9.8,30.43,West,264,1.1,1.1,74,0.00,CLR,,0.00,WeatherDisplay:10.37,2013-02-02 01:44:00,
2013-02-01 20:46:00,16.7,9.8,30.43,West,264,1.1,0.0,74,0.00,CLR,,0.00,WeatherDisplay:10.37,2013-02-02 01:46:00,
2013-02-01 20:48:00,16.7,10.1,30.43,West,264,0.0,0.0,75,0.00,CLR,,0.00,WeatherDisplay:10.37,2013-02-02 01:48:00,
2013-02-01 20:49:00,16.6,10.1,30.43,West,264,1.1,1.1,75,0.00,CLR,,0.00,WeatherDisplay:10.37,2013-02-02 01:49:00,
2013-02-01 20:51:00,16.6,10.3,30.43,West,264,0.0,0.0,76,0.00,CLR,,0.00,WeatherDisplay:10.37,2013-02-02 01:51:00,
2013-02-01 20:53:00,16.5,10.0,30.43,West,264,0.0,0.0,75,0.00,CLR,,0.00,WeatherDisplay:10.37,2013-02-02 01:53:00,
2013-02-01 20:54:00,16.5,10.0,30.43,West,264,1.1,1.1,75,0.00,CLR,,0.00,WeatherDisplay:10.37,2013-02-02 01:54:00,
2013-02-01 20:56:00,16.4,9.6,30.43,West,264,1.1,0.0,74,0.00,CLR,,0.00,WeatherDisplay:10.37,2013-02-02 01:56:00,
2013-02-01 20:58:00,16.4,9.6,30.43,West,264,1.1,1.1,74,0.00,CLR,,0.00,WeatherDisplay:10.37,2013-02-02 01:58:00,
2013-02-01 20:59:00,16.4,9.6,30.43,West,264,1.1,0.0,74,0.00,CLR,,0.00,WeatherDisplay:10.37,2013-02-02 01:59:00,
2013-02-01 21:02:00,16.4,9.6,30.43,West,264,1.1,0.0,74,0.00,CLR,,0.00,WeatherDisplay:10.37,2013-02-02 02:02:00,
2013-02-01 21:03:00,16.4,9.6,30.43,West,264,0.0,0.1,74,0.00,CLR,,0.00,WeatherDisplay:10.37,2013-02-02 02:03:00,
2013-02-01 21:04:00,16.4,9.6,30.43,West,264,1.1,1.1,74,0.00,CLR,,0.00,WeatherDisplay:10.37,2013-02-02 02:04:00,
2013-02-01 21:05:00,16.4,9.6,30.43,West,264,0.0,0.0,74,0.00,CLR,,0.00,WeatherDisplay:10.37,2013-02-02 02:05:00,
2013-02-01 21:07:00,16.2,9.7,30.43,West,264,0.0,0.0,75,0.00,CLR,,0.00,WeatherDisplay:10.37,2013-02-02 02:07:00,
2013-02-01 21:08:00,16.2,9.7,30.43,West,264,0.0,0.0,75,0.00,CLR,,0.00,WeatherDisplay:10.37,2013-02-02 02:08:00,
2013-02-01 21:09:00,16.2,9.7,30.43,West,264,0.0,0.0,75,0.00,CLR,,0.00,WeatherDisplay:10.37,2013-02-02 02:09:00,
2013-02-01 21:10:00,16.0,9.5,30.43,West,264,0.0,0.0,75,0.00,CLR,,0.00,WeatherDisplay:10.37,2013-02-02 02:10:00,
2013-02-01 21:12:00,15.9,9.7,30.43,West,264,0.0,0.0,76,0.00,CLR,,0.00,WeatherDisplay:10.37,2013-02-02 02:12:00,
2013-02-01 21:14:00,15.9,9.4,30.43,West,264,0.0,0.0,75,0.00,CLR,,0.00,WeatherDisplay:10.37,2013-02-02 02:14:00,
2013-02-01 21:15:00,15.9,9.7,30.43,West,264,0.0,0.0,76,0.00,CLR,,0.00,WeatherDisplay:10.37,2013-02-02 02:15:00,
2013-02-01 21:18:00,15.8,9.9,30.43,West,264,0.0,0.0,77,0.00,CLR,,0.00,WeatherDisplay:10.37,2013-02-02 02:18:00,
2013-02-01 21:19:00,15.8,9.9,30.43,West,264,0.0,0.0,77,0.00,CLR,,0.00,WeatherDisplay:10.37,2013-02-02 02:19:00,
2013-02-01 21:21:00,15.7,9.8,30.43,West,264,0.0,0.0,77,0.00,CLR,,0.00,WeatherDisplay:10.37,2013-02-02 02:21:00,
2013-02-01 21:23:00,15.5,9.6,30.43,West,264,0.0,0.0,77,0.00,CLR,,0.00,WeatherDisplay:10.37,2013-02-02 02:23:00,
2013-02-01 21:24:00,15.4,9.5,30.43,West,264,0.0,0.0,77,0.00,CLR,,0.00,WeatherDisplay:10.37,2013-02-02 02:24:00,
2013-02-01 21:25:00,15.4,9.5,30.43,West,264,0.0,0.0,77,0.00,CLR,,0.00,WeatherDisplay:10.37,2013-02-02 02:25:00,
2013-02-01 21:26:00,15.2,9.3,30.43,West,264,0.0,0.0,77,0.00,CLR,,0.00,WeatherDisplay:10.37,2013-02-02 02:26:00,
2013-02-01 21:28:00,15.1,9.2,30.43,West,264,0.0,0.0,77,0.00,CLR,,0.00,WeatherDisplay:10.37,2013-02-02 02:28:00,
2013-02-01 21:30:00,15.1,9.1,30.43,West,264,0.0,0.0,77,0.00,CLR,,0.00,WeatherDisplay:10.37,2013-02-02 02:30:00,
2013-02-01 21:32:00,14.8,8.9,30.43,West,264,0.0,0.0,77,0.00,CLR,,0.00,WeatherDisplay:10.37,2013-02-02 02:32:00,
2013-02-01 21:34:00,14.6,8.7,30.43,West,264,0.0,0.0,77,0.00,CLR,,0.00,WeatherDisplay:10.37,2013-02-02 02:34:00,
2013-02-01 21:35:00,14.6,8.7,30.43,West,264,0.0,0.0,77,0.00,CLR,,0.00,WeatherDisplay:10.37,2013-02-02 02:35:00,
2013-02-01 21:37:00,14.4,8.8,30.43,West,264,0.0,0.0,78,0.00,CLR,,0.00,WeatherDisplay:10.37,2013-02-02 02:37:00,
2013-02-01 21:39:00,14.3,8.7,30.43,West,264,0.0,0.0,78,0.00,CLR,,0.00,WeatherDisplay:10.37,2013-02-02 02:39:00,
2013-02-01 21:40:00,14.3,8.6,30.43,West,264,0.0,0.0,78,0.00,CLR,,0.00,WeatherDisplay:10.37,2013-02-02 02:40:00,
2013-02-01 21:43:00,14.1,8.8,30.43,West,264,0.0,0.0,79,0.00,CLR,,0.00,WeatherDisplay:10.37,2013-02-02 02:43:00,
2013-02-01 21:44:00,14.1,8.8,30.42,West,264,0.0,0.0,79,0.00,CLR,,0.00,WeatherDisplay:10.37,2013-02-02 02:44:00,
2013-02-01 21:45:00,14.1,8.8,30.43,West,264,0.0,0.0,79,0.00,CLR,,0.00,WeatherDisplay:10.37,2013-02-02 02:45:00,
2013-02-01 21:48:00,14.0,8.7,30.43,West,264,0.0,0.0,79,0.00,CLR,,0.00,WeatherDisplay:10.37,2013-02-02 02:48:00,
2013-02-01 21:49:00,13.9,8.6,30.43,West,264,0.0,0.0,79,0.00,CLR,,0.00,WeatherDisplay:10.37,2013-02-02 02:49:00,
2013-02-01 21:50:00,13.9,8.6,30.43,West,264,0.0,0.0,79,0.00,CLR,,0.00,WeatherDisplay:10.37,2013-02-02 02:50:00,
2013-02-01 21:51:00,13.8,8.5,30.43,West,264,0.0,0.0,79,0.00,CLR,,0.00,WeatherDisplay:10.37,2013-02-02 02:51:00,
2013-02-01 21:53:00,13.7,8.4,30.43,West,264,0.0,0.0,79,0.00,CLR,,0.00,WeatherDisplay:10.37,2013-02-02 02:53:00,
2013-02-01 21:54:00,13.7,8.4,30.43,West,264,0.0,0.0,79,0.00,CLR,,0.00,WeatherDisplay:10.37,2013-02-02 02:54:00,
2013-02-01 21:55:00,13.6,8.3,30.43,West,264,0.0,0.0,79,0.00,CLR,,0.00,WeatherDisplay:10.37,2013-02-02 02:55:00,
2013-02-01 21:56:00,13.6,8.3,30.43,West,264,0.0,0.0,79,0.00,CLR,,0.00,WeatherDisplay:10.37,2013-02-02 02:56:00,
2013-02-01 21:58:00,13.5,8.2,30.43,West,264,0.0,0.0,79,0.00,CLR,,0.00,WeatherDisplay:10.37,2013-02-02 02:58:00,
2013-02-01 21:59:00,13.4,8.4,30.43,West,264,0.0,0.0,80,0.00,CLR,,0.00,WeatherDisplay:10.37,2013-02-02 02:59:00,
2013-02-01 22:00:00,13.4,8.4,30.43,West,264,0.0,0.0,80,0.00,CLR,,0.00,WeatherDisplay:10.37,2013-02-02 03:00:00,
2013-02-01 22:01:00,13.5,8.5,30.43,West,264,0.0,0.0,80,0.00,CLR,,0.00,WeatherDisplay:10.37,2013-02-02 03:01:00,
2013-02-01 22:03:00,13.5,8.8,30.42,West,264,0.0,0.0,81,0.00,,,0.00,WeatherDisplay:10.37,2013-02-02 03:03:00,
2013-02-01 22:05:00,13.6,8.9,30.42,West,264,0.0,0.0,81,0.00,,,0.00,WeatherDisplay:10.37,2013-02-02 03:05:00,
2013-02-01 22:06:00,13.6,8.9,30.43,West,264,0.0,0.0,81,0.00,,,0.00,WeatherDisplay:10.37,2013-02-02 03:06:00,
2013-02-01 22:08:00,13.6,8.9,30.43,West,264,0.0,0.0,81,0.00,,,0.00,WeatherDisplay:10.37,2013-02-02 03:08:00,
2013-02-01 22:10:00,13.6,8.9,30.43,West,264,0.0,0.0,81,0.00,,,0.00,WeatherDisplay:10.37,2013-02-02 03:10:00,
2013-02-01 22:11:00,13.5,8.8,30.42,West,264,0.0,0.0,81,0.00,,,0.00,WeatherDisplay:10.37,2013-02-02 03:11:00,
2013-02-01 22:14:00,13.5,9.0,30.42,West,264,0.0,0.0,82,0.00,,,0.00,WeatherDisplay:10.37,2013-02-02 03:14:00,
2013-02-01 22:15:00,13.5,9.0,30.42,West,264,0.0,0.0,82,0.00,,,0.00,WeatherDisplay:10.37,2013-02-02 03:15:00,
2013-02-01 22:16:00,13.5,9.3,30.42,West,264,0.0,0.0,83,0.00,,,0.00,WeatherDisplay:10.37,2013-02-02 03:16:00,
2013-02-01 22:20:00,13.5,9.0,30.42,West,264,0.0,0.0,82,0.00,,,0.00,WeatherDisplay:10.37,2013-02-02 03:20:00,
2013-02-01 22:21:00,13.4,8.9,30.42,West,264,0.0,0.0,82,0.00,,,0.00,WeatherDisplay:10.37,2013-02-02 03:21:00,
2013-02-01 22:22:00,13.3,8.8,30.42,West,264,0.0,0.0,82,0.00,,,0.00,WeatherDisplay:10.37,2013-02-02 03:22:00,
2013-02-01 22:25:00,13.2,8.7,30.42,West,264,0.0,0.0,82,0.00,,,0.00,WeatherDisplay:10.37,2013-02-02 03:25:00,
2013-02-01 22:26:00,13.1,8.6,30.42,West,264,0.0,0.0,82,0.00,,,0.00,WeatherDisplay:10.37,2013-02-02 03:26:00,
2013-02-01 22:28:00,12.9,8.4,30.43,West,264,0.0,0.0,82,0.00,,,0.00,WeatherDisplay:10.37,2013-02-02 03:28:00,
2013-02-01 22:30:00,12.8,8.3,30.42,West,264,0.0,0.0,82,0.00,,,0.00,WeatherDisplay:10.37,2013-02-02 03:30:00,
2013-02-01 22:31:00,12.7,8.2,30.43,West,264,0.0,0.0,82,0.00,,,0.00,WeatherDisplay:10.37,2013-02-02 03:31:00,
2013-02-01 22:33:00,12.6,8.4,30.42,West,264,0.0,0.0,83,0.00,,,0.00,WeatherDisplay:10.37,2013-02-02 03:33:00,
2013-02-01 22:35:00,12.6,8.7,30.42,West,264,0.0,0.0,84,0.00,,,0.00,WeatherDisplay:10.37,2013-02-02 03:35:00,
2013-02-01 22:36:00,12.6,8.7,30.42,West,264,0.0,0.0,84,0.00,,,0.00,WeatherDisplay:10.37,2013-02-02 03:36:00,
2013-02-01 22:38:00,12.6,8.7,30.42,West,264,0.0,0.0,84,0.00,,,0.00,WeatherDisplay:10.37,2013-02-02 03:38:00,
2013-02-01 22:40:00,12.6,8.7,30.42,West,264,0.0,0.0,84,0.00,,,0.00,WeatherDisplay:10.37,2013-02-02 03:40:00,
2013-02-01 22:41:00,12.6,8.7,30.42,West,264,0.0,0.0,84,0.00,,,0.00,WeatherDisplay:10.37,2013-02-02 03:41:00,
2013-02-01 22:42:00,12.6,8.7,30.42,West,264,0.0,0.0,84,0.00,,,0.00,WeatherDisplay:10.37,2013-02-02 03:42:00,
2013-02-01 22:44:00,12.6,8.7,30.42,West,264,0.0,0.0,84,0.00,,,0.00,WeatherDisplay:10.37,2013-02-02 03:44:00,
2013-02-01 22:45:00,12.6,8.7,30.42,West,264,0.0,0.0,84,0.00,,,0.00,WeatherDisplay:10.37,2013-02-02 03:45:00,
2013-02-01 22:46:00,12.5,8.6,30.42,West,264,0.0,0.0,84,0.00,,,0.00,WeatherDisplay:10.37,2013-02-02 03:46:00,
2013-02-01 22:47:00,12.5,8.3,30.42,West,264,0.0,0.0,83,0.00,,,0.00,WeatherDisplay:10.37,2013-02-02 03:47:00,
2013-02-01 22:49:00,12.4,8.2,30.42,West,264,0.0,0.0,83,0.00,,,0.00,WeatherDisplay:10.37,2013-02-02 03:49:00,
2013-02-01 22:50:00,12.3,8.1,30.43,West,264,0.0,0.0,83,0.00,,,0.00,WeatherDisplay:10.37,2013-02-02 03:50:00,
2013-02-01 22:51:00,12.2,8.0,30.43,West,264,0.0,0.0,83,0.00,,,0.00,WeatherDisplay:10.37,2013-02-02 03:51:00,
2013-02-01 22:53:00,12.1,8.2,30.42,West,264,0.0,0.0,84,0.00,,,0.00,WeatherDisplay:10.37,2013-02-02 03:53:00,
2013-02-01 22:55:00,12.1,8.5,30.43,West,264,0.0,0.0,85,0.00,,,0.00,WeatherDisplay:10.37,2013-02-02 03:55:00,
2013-02-01 22:56:00,12.1,8.5,30.42,West,264,0.0,0.0,85,0.00,,,0.00,WeatherDisplay:10.37,2013-02-02 03:56:00,
2013-02-01 22:58:00,12.1,8.5,30.42,West,264,0.0,0.0,85,0.00,,,0.00,WeatherDisplay:10.37,2013-02-02 03:58:00,
2013-02-01 23:00:00,12.1,8.5,30.42,West,264,0.0,0.0,85,0.00,,,0.00,WeatherDisplay:10.37,2013-02-02 04:00:00,
2013-02-01 23:01:00,12.1,8.5,30.42,West,264,0.0,0.0,85,0.00,,,0.00,WeatherDisplay:10.37,2013-02-02 04:01:00,
2013-02-01 23:03:00,12.1,8.5,30.42,West,264,0.0,0.0,85,0.00,,,0.00,WeatherDisplay:10.37,2013-02-02 04:03:00,
2013-02-01 23:05:00,12.1,8.5,30.42,West,264,0.0,0.0,85,0.00,,,0.00,WeatherDisplay:10.37,2013-02-02 04:05:00,
2013-02-01 23:07:00,12.0,8.4,30.42,West,264,0.0,0.0,85,0.00,,,0.00,WeatherDisplay:10.37,2013-02-02 04:07:00,
2013-02-01 23:09:00,11.9,8.3,30.42,West,264,0.0,0.0,85,0.00,,,0.00,WeatherDisplay:10.37,2013-02-02 04:09:00,
2013-02-01 23:10:00,11.8,8.2,30.42,West,264,0.0,0.0,85,0.00,,,0.00,WeatherDisplay:10.37,2013-02-02 04:10:00,
2013-02-01 23:12:00,11.9,8.3,30.42,West,264,0.0,0.0,85,0.00,,,0.00,WeatherDisplay:10.37,2013-02-02 04:12:00,
2013-02-01 23:13:00,11.8,8.4,30.42,West,264,0.0,0.0,86,0.00,,,0.00,WeatherDisplay:10.37,2013-02-02 04:13:00,
2013-02-01 23:14:00,11.9,8.5,30.42,West,264,0.0,0.0,86,0.00,,,0.00,WeatherDisplay:10.37,2013-02-02 04:14:00,
2013-02-01 23:15:00,11.9,8.5,30.42,West,264,0.0,0.0,86,0.00,,,0.00,WeatherDisplay:10.37,2013-02-02 04:15:00,
2013-02-01 23:17:00,11.8,8.4,30.42,West,264,0.0,0.0,86,0.00,,,0.00,WeatherDisplay:10.37,2013-02-02 04:17:00,
2013-02-01 23:18:00,11.8,8.4,30.42,West,264,0.0,0.0,86,0.00,,,0.00,WeatherDisplay:10.37,2013-02-02 04:18:00,
2013-02-01 23:19:00,11.8,8.4,30.42,West,264,0.0,0.0,86,0.00,,,0.00,WeatherDisplay:10.37,2013-02-02 04:19:00,
2013-02-01 23:20:00,11.9,8.8,30.42,West,264,0.0,0.0,87,0.00,,,0.00,WeatherDisplay:10.37,2013-02-02 04:20:00,
2013-02-01 23:22:00,11.9,8.8,30.43,West,264,0.0,0.0,87,0.00,,,0.00,WeatherDisplay:10.37,2013-02-02 04:22:00,
2013-02-01 23:23:00,11.9,8.8,30.43,West,264,0.0,0.0,87,0.00,,,0.00,WeatherDisplay:10.37,2013-02-02 04:23:00,
2013-02-01 23:24:00,11.9,8.5,30.43,West,264,0.0,0.0,86,0.00,,,0.00,WeatherDisplay:10.37,2013-02-02 04:24:00,
2013-02-01 23:25:00,11.8,8.4,30.43,West,264,0.0,0.0,86,0.00,,,0.00,WeatherDisplay:10.37,2013-02-02 04:25:00,
2013-02-01 23:27:00,11.8,8.7,30.43,West,264,0.0,0.0,87,0.00,,,0.00,WeatherDisplay:10.37,2013-02-02 04:27:00,
2013-02-01 23:28:00,11.8,8.7,30.43,West,264,0.0,0.0,87,0.00,,,0.00,WeatherDisplay:10.37,2013-02-02 04:28:00,
2013-02-01 23:29:00,11.9,8.8,30.43,West,264,0.0,0.0,87,0.00,,,0.00,WeatherDisplay:10.37,2013-02-02 04:29:00,
2013-02-01 23:31:00,11.9,8.8,30.43,West,264,0.0,0.0,87,0.00,,,0.00,WeatherDisplay:10.37,2013-02-02 04:31:00,
2013-02-01 23:32:00,11.9,8.8,30.43,West,264,0.0,0.0,87,0.00,,,0.00,WeatherDisplay:10.37,2013-02-02 04:32:00,
2013-02-01 23:34:00,11.9,8.8,30.43,West,264,0.0,0.0,87,0.00,,,0.00,WeatherDisplay:10.37,2013-02-02 04:34:00,
2013-02-01 23:35:00,11.8,8.7,30.43,West,264,0.0,0.0,87,0.00,,,0.00,WeatherDisplay:10.37,2013-02-02 04:35:00,
2013-02-01 23:36:00,11.8,8.7,30.43,West,264,0.0,0.0,87,0.00,,,0.00,WeatherDisplay:10.37,2013-02-02 04:36:00,
2013-02-01 23:37:00,11.8,8.7,30.43,West,264,0.0,0.0,87,0.00,,,0.00,WeatherDisplay:10.37,2013-02-02 04:37:00,
2013-02-01 23:39:00,11.8,8.7,30.43,West,264,0.0,0.0,87,0.00,,,0.00,WeatherDisplay:10.37,2013-02-02 04:39:00,
2013-02-01 23:40:00,11.8,8.7,30.43,West,264,0.0,0.0,87,0.00,,,0.00,WeatherDisplay:10.37,2013-02-02 04:40:00,
2013-02-01 23:41:00,11.8,8.7,30.43,West,264,0.0,0.0,87,0.00,,,0.00,WeatherDisplay:10.37,2013-02-02 04:41:00,
2013-02-01 23:43:00,11.8,8.7,30.43,West,264,0.0,0.0,87,0.00,,,0.00,WeatherDisplay:10.37,2013-02-02 04:43:00,
2013-02-01 23:44:00,11.9,9.0,30.43,West,264,0.0,0.0,88,0.00,,,0.00,WeatherDisplay:10.37,2013-02-02 04:44:00,
2013-02-01 23:45:00,11.8,8.9,30.43,West,264,0.0,0.0,88,0.00,,,0.00,WeatherDisplay:10.37,2013-02-02 04:45:00,
2013-02-01 23:46:00,11.9,9.0,30.43,West,264,0.0,0.0,88,0.00,,,0.00,WeatherDisplay:10.37,2013-02-02 04:46:00,
2013-02-01 23:48:00,11.9,9.0,30.43,West,264,0.0,0.0,88,0.00,,,0.00,WeatherDisplay:10.37,2013-02-02 04:48:00,
2013-02-01 23:49:00,11.9,9.0,30.43,West,264,0.0,0.0,88,0.00,,,0.00,WeatherDisplay:10.37,2013-02-02 04:49:00,
2013-02-01 23:50:00,11.8,8.9,30.43,West,264,0.0,0.0,88,0.00,,,0.00,WeatherDisplay:10.37,2013-02-02 04:50:00,
2013-02-01 23:51:00,11.8,8.9,30.43,West,264,0.0,0.0,88,0.00,,,0.00,WeatherDisplay:10.37,2013-02-02 04:51:00,
2013-02-01 23:53:00,11.8,8.9,30.43,West,264,0.0,0.0,88,0.00,,,0.00,WeatherDisplay:10.37,2013-02-02 04:53:00,
2013-02-01 23:54:00,11.8,8.9,30.43,West,264,0.0,0.0,88,0.00,,,0.00,WeatherDisplay:10.37,2013-02-02 04:54:00,
2013-02-01 23:56:00,11.8,8.9,30.43,West,264,0.0,0.0,88,0.00,,,0.00,WeatherDisplay:10.37,2013-02-02 04:56:00,
2013-02-01 23:58:00,11.8,8.9,30.43,West,264,0.0,0.0,88,0.00,,,0.00,WeatherDisplay:10.37,2013-02-02 04:58:00,
2013-02-01 23:59:00,11.8,9.2,30.43,West,264,0.0,0.0,89,0.00,,,0.00,WeatherDisplay:10.37,2013-02-02 04:59:00,